W4HSV Weather Reports


time (UTC)temp
F
wind
direction
speed
knots
gust
knots
rain 1hr
in
rain 24hr
in
rain mn
in
humidity
%
barometer
mb
20260906045134 79 64 0.0 0.0 0.00 0.04 0.04 83 1011.8
20260906045046 79 64 0.0 0.0 0.00 0.04 0.04 83 1011.8
20260906044932 79 64 0.0 0.0 0.00 0.04 0.04 82 1011.8
20260906044810 79 64 0.0 0.0 0.00 0.04 0.04 82 1012.0
20260906044523 79 64 0.0 0.0 0.00 0.04 0.04 83 1012.1
20260906044434 79 64 0.0 0.0 0.00 0.04 0.04 83 1012.0
20260906044319 79 64 0.0 0.0 0.00 0.04 0.04 83 1012.1
20260906044228 79 64 0.0 0.0 0.00 0.04 0.04 83 1012.1
20260906044135 79 64 0.0 0.0 0.00 0.04 0.04 83 1012.1
20260906044022 79 64 0.0 0.0 0.00 0.04 0.04 83 1012.0
20260906043933 79 64 0.0 0.0 0.00 0.04 0.04 83 1012.1
20260906043820 79 64 0.0 0.0 0.00 0.04 0.04 83 1012.1
20260906043748 79 64 0.0 0.0 0.00 0.04 0.04 83 1012.1
20260906043655 79 64 0.0 0.0 0.00 0.04 0.04 83 1012.1
20260906043520 79 64 0.0 0.0 0.00 0.04 0.04 83 1012.1
20260906043427 79 64 0.0 0.0 0.00 0.04 0.04 83 1012.2
20260906043335 79 64 0.0 0.0 0.00 0.04 0.04 83 1012.2
20260906043309 79 64 0.0 0.0 0.00 0.04 0.04 82 1012.2
20260906043023 79 64 0.0 0.0 0.00 0.04 0.04 83 1012.2
20260906042930 79 64 0.0 0.0 0.00 0.04 0.04 83 1012.3
20260906042837 79 64 0.0 0.0 0.00 0.04 0.04 83 1012.2
20260906042750 79 64 0.0 0.0 0.00 0.04 0.04 83 1012.2
20260906042635 79 64 0.0 0.0 0.00 0.04 0.04 83 1012.2
20260906042521 79 64 0.0 0.0 0.00 0.04 0.04 82 1012.2
20260906042429 79 64 0.0 0.0 0.00 0.04 0.04 82 1012.1
20260906042337 79 64 0.0 0.0 0.00 0.04 0.04 82 1012.2
20260906042222 79 64 0.0 0.0 0.00 0.04 0.04 82 1012.2
20260906042134 79 64 0.0 0.0 0.00 0.04 0.04 82 1012.3
20260906042022 79 64 0.0 0.0 0.00 0.04 0.04 83 1012.2
20260906041928 79 64 0.0 0.0 0.00 0.04 0.04 83 1012.3
20260906041811 79 64 0.0 0.0 0.00 0.04 0.04 83 1012.3
20260906041524 79 64 0.0 0.0 0.00 0.04 0.04 83 1012.3
20260906041431 79 64 0.0 0.0 0.00 0.04 0.04 83 1012.2
20260906041319 79 64 0.0 0.0 0.00 0.04 0.04 83 1012.2
20260906041245 79 64 0.0 0.0 0.00 0.04 0.04 83 1012.2
20260906041132 79 64 0.0 0.0 0.00 0.04 0.04 82 1012.3
20260906041045 79 64 0.0 0.0 0.00 0.04 0.04 82 1012.2
20260906040931 79 64 0.0 0.0 0.00 0.04 0.04 82 1012.2
20260906040819 79 64 0.0 0.0 0.00 0.04 0.04 82 1012.2
20260906040725 79 64 0.0 0.0 0.00 0.04 0.04 82 1012.1
20260906040632 79 64 0.0 0.0 0.00 0.04 0.04 82 1012.2
20260906040519 79 64 0.0 0.0 0.00 0.04 0.04 82 1012.2
20260906040432 79 64 0.0 0.0 0.00 0.04 0.04 82 1012.1
20260906040308 79 64 0.0 0.0 0.00 0.04 0.04 82 1012.2
20260906040021 80 64 0.0 0.0 0.00 0.04 0.04 82 1012.2
20260906035928 80 64 0.0 0.9 0.00 0.04 0.04 82 1012.2
20260906035819 80 64 0.0 1.7 0.00 0.04 0.04 82 1012.1
20260906035746 80 64 0.0 1.7 0.00 0.04 0.04 82 1012.1
20260906035632 80 64 0.0 1.7 0.00 0.04 0.04 82 1012.1
20260906035559 80 64 0.0 1.7 0.00 0.04 0.04 82 1012.1
20260906035424 80 64 0.0 1.7 0.00 0.04 0.04 82 1012.1
20260906035330 80 64 0.0 1.7 0.00 0.04 0.04 82 1012.1
20260906035221 80 64 0.0 1.7 0.00 0.04 0.04 82 1012.2
20260906035129 80 64 0.9 1.7 0.00 0.04 0.04 81 1012.2
20260906035032 80 64 0.0 1.7 0.00 0.04 0.04 82 1012.3
20260906034920 80 64 0.0 0.9 0.00 0.04 0.04 83 1012.3
20260906034803 80 145 0.0 0.9 0.00 0.04 0.04 83 1012.2
20260906034537 80 145 0.0 0.0 0.00 0.04 0.04 83 1012.2
20260906034422 80 145 0.0 0.0 0.00 0.04 0.04 83 1012.2
20260906034331 80 145 0.0 0.0 0.00 0.04 0.04 83 1012.2
20260906034238 80 145 0.0 0.9 0.00 0.04 0.04 83 1012.1
20260906034128 80 145 0.0 1.7 0.00 0.04 0.04 83 1012.2
20260906034035 80 145 0.0 1.7 0.00 0.04 0.04 83 1012.1
20260906033922 80 145 0.0 1.7 0.00 0.04 0.04 83 1012.2
20260906033828 80 145 0.0 1.7 0.00 0.04 0.04 83 1012.2
20260906033734 80 145 0.0 1.7 0.00 0.04 0.04 84 1012.2
20260906033640 80 145 0.0 1.7 0.00 0.04 0.04 84 1012.1
20260906033530 80 145 0.0 1.7 0.00 0.04 0.04 84 1012.2
20260906033436 80 145 0.0 1.7 0.00 0.04 0.04 84 1012.1
20260906033322 80 145 0.0 1.7 0.00 0.04 0.04 82 1012.1
20260906033252 80 145 0.0 1.7 0.00 0.04 0.04 82 1012.1
20260906033030 80 360 0.0 0.0 0.00 0.04 0.04 81 1012.2
20260906032937 80 360 0.0 0.0 0.00 0.04 0.04 81 1012.2
20260906032825 80 360 0.0 0.0 0.00 0.04 0.04 81 1012.1
20260906032731 80 360 0.0 0.0 0.00 0.04 0.04 81 1012.1
20260906032618 80 360 0.0 0.0 0.00 0.04 0.04 80 1012.1
20260906032526 80 360 0.0 0.0 0.00 0.04 0.04 80 1012.0
20260906032456 80 360 0.0 0.0 0.00 0.04 0.04 81 1012.1
20260906032321 80 360 0.0 0.0 0.00 0.04 0.04 81 1012.0
20260906032230 80 360 0.0 0.0 0.00 0.04 0.04 81 1011.9
20260906032159 80 360 0.0 0.0 0.00 0.04 0.04 81 1012.0
20260906032024 80 360 0.0 0.0 0.00 0.04 0.04 81 1011.9
20260906031932 80 360 0.0 0.0 0.00 0.04 0.04 80 1012.0
20260906031824 80 360 0.0 0.0 0.00 0.04 0.04 80 1012.0
20260906031753 80 360 0.0 0.0 0.00 0.04 0.04 80 1012.0
20260906031547 80 360 0.0 0.0 0.00 0.04 0.04 80 1012.0
20260906031452 80 360 0.0 0.0 0.00 0.04 0.04 80 1012.0
20260906031318 80 360 0.0 0.0 0.00 0.04 0.04 80 1012.0
20260906031229 80 360 0.0 0.0 0.00 0.04 0.04 80 1012.0
20260906031137 80 360 0.0 0.0 0.00 0.04 0.04 80 1012.0
20260906031024 80 360 0.0 0.0 0.00 0.04 0.04 80 1012.0
20260906030951 80 360 0.0 0.0 0.00 0.04 0.04 80 1012.0
20260906030836 80 360 0.0 0.0 0.00 0.04 0.04 81 1012.0
20260906030724 80 360 0.0 0.0 0.00 0.04 0.04 81 1012.0
20260906030634 80 360 0.0 0.0 0.00 0.04 0.04 81 1012.0
20260906030541 80 360 0.0 0.0 0.00 0.04 0.04 80 1012.0
20260906030448 80 360 0.0 0.0 0.00 0.04 0.04 80 1012.0
20260906030415 80 360 0.0 0.0 0.00 0.04 0.04 80 1012.0
20260906030323 80 360 0.0 0.0 0.00 0.04 0.04 80 1011.9
20260906030035 80 360 0.0 0.0 0.00 0.04 0.04 80 1012.1
20260906025926 80 360 0.0 0.0 0.00 0.04 0.04 80 1012.1
20260906025832 80 360 0.0 0.0 0.00 0.04 0.04 81 1012.0
20260906025719 80 360 0.0 0.0 0.00 0.04 0.04 81 1012.1
20260906025626 80 360 0.0 0.0 0.00 0.04 0.04 81 1012.1
20260906025533 80 360 0.0 0.0 0.00 0.04 0.04 81 1012.2
20260906025424 80 360 0.0 0.0 0.00 0.04 0.04 81 1012.1
20260906025353 80 360 0.0 0.0 0.00 0.04 0.04 80 1012.1
20260906025219 80 360 0.0 0.0 0.00 0.04 0.04 80 1012.1
20260906025126 80 360 0.0 0.0 0.00 0.04 0.04 80 1012.1
20260906025054 80 360 0.0 0.0 0.00 0.04 0.04 81 1012.1
20260906024919 80 360 0.0 0.9 0.00 0.04 0.04 81 1012.0
20260906024847 80 360 0.0 0.9 0.00 0.04 0.04 81 1012.0
20260906024822 80 360 0.0 1.7 0.00 0.04 0.04 81 1012.0
20260906024535 80 360 0.0 1.7 0.00 0.04 0.04 81 1012.0
20260906024442 80 360 0.0 1.7 0.00 0.04 0.04 81 1012.0
20260906024328 80 360 0.0 1.7 0.00 0.04 0.04 81 1012.0
20260906024235 80 360 0.0 1.7 0.00 0.04 0.04 81 1012.0
20260906024126 80 360 0.9 1.7 0.00 0.04 0.04 80 1011.9
20260906024035 80 360 0.9 1.7 0.00 0.04 0.04 80 1011.8
20260906023922 80 360 0.9 1.7 0.00 0.04 0.04 80 1011.8
20260906023849 80 360 0.9 1.7 0.00 0.04 0.04 80 1011.8
20260906023733 80 360 0.9 1.7 0.00 0.04 0.04 80 1011.7
20260906023620 80 360 0.9 1.7 0.00 0.04 0.04 80 1011.7
20260906023531 80 360 0.9 1.7 0.00 0.04 0.04 80 1011.6
20260906023438 80 360 0.9 2.6 0.00 0.04 0.04 80 1011.7
20260906023345 80 360 0.0 2.6 0.00 0.04 0.04 80 1011.7
20260906023255 80 360 0.0 2.6 0.00 0.04 0.04 80 1011.7
20260906023028 80 360 0.0 2.6 0.00 0.04 0.04 80 1011.7
20260906022920 80 360 0.0 2.6 0.00 0.04 0.04 80 1011.6
20260906022847 80 360 0.0 2.6 0.00 0.04 0.04 80 1011.6
20260906022734 80 360 0.9 2.6 0.00 0.04 0.04 79 1011.7
20260906022621 80 360 0.9 2.6 0.00 0.04 0.04 79 1011.6
20260906022527 80 360 0.0 2.6 0.00 0.04 0.04 78 1011.5
20260906022419 80 360 0.9 2.6 0.00 0.04 0.04 79 1011.4
20260906022326 80 360 0.9 2.6 0.00 0.04 0.04 79 1011.5
20260906022233 80 360 1.7 2.6 0.00 0.04 0.04 79 1011.5
20260906022141 80 360 1.7 2.6 0.00 0.04 0.04 79 1011.4
20260906022026 80 360 1.7 2.6 0.00 0.04 0.04 79 1011.4
20260906021933 80 360 1.7 2.6 0.00 0.04 0.04 79 1011.4
20260906021823 80 360 0.9 2.6 0.00 0.04 0.04 79 1011.4
20260906021754 80 360 0.0 1.7 0.00 0.04 0.04 79 1011.4
20260906021526 80 360 0.0 0.0 0.00 0.04 0.04 79 1011.4
20260906021433 80 360 0.0 0.0 0.00 0.04 0.04 79 1011.3
20260906021321 80 360 0.0 0.0 0.00 0.04 0.04 79 1011.3
20260906021250 80 360 0.0 0.9 0.00 0.04 0.04 79 1011.3
20260906021137 80 360 0.0 1.7 0.00 0.04 0.04 79 1011.4
20260906021043 80 360 0.0 1.7 0.00 0.04 0.04 79 1011.4
20260906020930 80 360 0.0 1.7 0.00 0.04 0.04 79 1011.3
20260906020837 80 360 0.0 1.7 0.00 0.04 0.04 79 1011.3
20260906020725 80 360 0.0 1.7 0.00 0.04 0.04 79 1011.3
20260906020634 80 360 0.0 1.7 0.00 0.04 0.04 79 1011.3
20260906020522 80 360 0.0 1.7 0.00 0.04 0.04 79 1011.3
20260906020450 80 360 0.0 1.7 0.00 0.04 0.04 79 1011.3
20260906020337 80 360 0.0 1.7 0.00 0.04 0.04 79 1011.3
20260906020307 80 360 0.0 1.7 0.00 0.04 0.04 79 1011.3
20260906020024 80 360 0.0 2.6 0.00 0.04 0.04 79 1011.2
20260906015951 80 360 0.9 2.6 0.00 0.04 0.04 79 1011.2
20260906015837 80 360 0.9 2.6 0.00 0.04 0.04 79 1011.2
20260906015723 80 360 0.9 2.6 0.00 0.04 0.04 78 1011.2
20260906015630 80 360 0.9 2.6 0.00 0.04 0.04 77 1011.2
20260906015518 80 360 1.7 2.6 0.00 0.04 0.04 78 1011.2
20260906015428 80 360 1.7 2.6 0.00 0.04 0.04 77 1011.2
20260906015335 80 360 0.9 2.6 0.00 0.04 0.04 78 1011.2
20260906015243 80 360 0.0 2.6 0.00 0.04 0.04 78 1011.1
20260906015129 80 360 0.9 2.6 0.00 0.04 0.04 78 1011.0
20260906015037 80 360 0.9 2.6 0.00 0.04 0.04 79 1011.1
20260906014944 80 360 0.9 2.6 0.00 0.04 0.04 79 1011.1
20260906014910 80 360 0.9 2.6 0.00 0.04 0.04 78 1011.1
20260906014824 80 360 1.7 2.6 0.00 0.04 0.04 79 1011.1
20260906014537 80 360 0.9 2.6 0.00 0.04 0.04 78 1011.1
20260906014424 80 360 0.0 1.7 0.00 0.04 0.04 78 1011.1
20260906014350 80 360 0.0 0.0 0.00 0.04 0.04 78 1011.1
20260906014220 80 360 0.0 0.9 0.00 0.04 0.04 78 1011.0
20260906014127 80 360 0.0 0.9 0.00 0.04 0.04 78 1011.0
20260906014034 80 360 0.0 0.9 0.00 0.04 0.04 78 1011.0
20260906013941 80 360 0.0 0.9 0.00 0.04 0.04 78 1011.0
20260906013826 80 360 0.0 0.9 0.00 0.04 0.04 78 1011.0
20260906013753 80 360 0.0 0.9 0.00 0.04 0.04 77 1010.9
20260906013639 80 360 0.0 0.9 0.00 0.04 0.04 77 1010.8
20260906013528 80 360 0.0 0.9 0.00 0.04 0.04 77 1010.9
20260906013435 80 360 0.0 0.9 0.00 0.04 0.04 78 1010.8
20260906013402 80 360 0.0 0.9 0.00 0.04 0.04 79 1010.8
20260906013311 80 360 0.0 1.7 0.00 0.04 0.04 79 1010.8
20260906013024 80 360 0.0 1.7 0.00 0.04 0.04 78 1010.8
20260906012935 80 360 0.0 1.7 0.00 0.04 0.04 78 1010.7
20260906012843 80 360 0.0 3.5 0.00 0.04 0.04 78 1010.8
20260906012728 80 360 0.0 3.5 0.00 0.04 0.04 78 1010.8
20260906012635 80 360 0.0 3.5 0.00 0.04 0.04 78 1010.8
20260906012521 80 360 0.9 3.5 0.00 0.04 0.04 79 1010.8
20260906012428 80 360 0.9 3.5 0.00 0.04 0.04 79 1010.8
20260906012339 80 360 0.9 3.5 0.00 0.04 0.04 78 1011.0
20260906012224 80 360 0.9 3.5 0.00 0.04 0.04 78 1010.9
20260906012131 80 360 1.7 3.5 0.00 0.04 0.04 79 1010.8
20260906012018 80 360 1.7 3.5 0.00 0.04 0.04 79 1010.8
20260906011926 80 360 1.7 3.5 0.00 0.04 0.04 78 1010.8
20260906011853 80 360 0.9 1.7 0.00 0.04 0.04 78 1010.8
20260906011806 80 360 0.9 1.7 0.00 0.04 0.04 78 1010.8
20260906011518 80 360 0.9 2.6 0.00 0.04 0.04 78 1010.8
20260906011425 80 360 0.0 2.6 0.00 0.04 0.04 78 1010.8
20260906011332 80 360 0.0 2.6 0.00 0.04 0.04 78 1010.8
20260906011219 80 360 0.9 2.6 0.00 0.04 0.04 78 1010.7
20260906011130 80 360 0.9 2.6 0.00 0.04 0.04 78 1010.8
20260906011018 80 360 0.9 3.5 0.00 0.04 0.04 78 1010.8
20260906010925 80 360 0.9 3.5 0.00 0.04 0.04 78 1010.7
20260906010831 80 360 0.9 3.5 0.00 0.04 0.04 77 1010.7
20260906010737 80 360 0.9 3.5 0.00 0.04 0.04 77 1010.7
20260906010627 80 360 0.9 3.5 0.00 0.04 0.04 77 1010.7
20260906010555 80 360 1.7 3.5 0.00 0.04 0.04 78 1010.7
20260906010421 80 360 1.7 3.5 0.00 0.04 0.04 78 1010.7
20260906010328 81 360 1.7 3.5 0.00 0.04 0.04 78 1010.6
20260906010259 80 360 2.6 3.5 0.00 0.04 0.04 78 1010.6
20260906010036 81 360 2.6 3.5 0.00 0.04 0.04 78 1010.6
20260906005922 81 360 1.7 2.6 0.00 0.04 0.04 77 1010.6
20260906005848 81 28 1.7 3.5 0.00 0.04 0.04 77 1010.5
20260906005734 80 42 1.7 3.5 0.00 0.04 0.04 77 1010.6
20260906005619 81 42 1.7 3.5 0.00 0.04 0.04 77 1010.7
20260906005528 81 61 1.7 3.5 0.00 0.04 0.04 76 1010.6
20260906005420 81 55 1.7 3.5 0.00 0.04 0.04 77 1010.5
20260906005327 81 53 1.7 3.5 0.00 0.04 0.04 77 1010.5
20260906005232 81 57 1.7 3.5 0.00 0.04 0.04 77 1010.5
20260906005120 81 42 1.7 3.5 0.00 0.04 0.04 77 1010.4
20260906005047 81 42 1.7 3.5 0.00 0.04 0.04 77 1010.4
20260906004953 81 42 1.7 3.5 0.00 0.04 0.04 77 1010.4
20260906004822 81 42 2.6 3.5 0.00 0.04 0.04 77 1010.5
20260906004752 81 42 2.6 3.5 0.00 0.04 0.04 77 1010.5
20260906004525 81 36 2.6 3.5 0.00 0.04 0.04 77 1010.4
20260906004433 81 37 2.6 3.5 0.00 0.04 0.04 77 1010.4
20260906004321 81 37 1.7 3.5 0.00 0.04 0.04 77 1010.4
20260906004253 81 37 0.9 3.5 0.00 0.04 0.04 76 1010.5
20260906004119 81 69 0.0 3.5 0.00 0.04 0.04 76 1010.5
20260906004027 81 87 0.0 3.5 0.00 0.04 0.04 76 1010.6
20260906003935 81 87 0.0 3.5 0.00 0.04 0.04 77 1010.4
20260906003823 81 87 0.9 3.5 0.00 0.04 0.04 77 1010.5
20260906003732 81 121 0.9 3.5 0.00 0.04 0.04 77 1010.5
20260906003620 81 98 2.6 3.5 0.00 0.04 0.04 77 1010.5
20260906003527 81 119 1.7 4.3 0.00 0.04 0.04 77 1010.5
20260906003454 81 117 1.7 4.3 0.00 0.04 0.04 76 1010.5
20260906003422 81 116 0.9 1.7 0.00 0.04 0.04 76 1010.5
20260906003331 81 116 0.0 2.6 0.00 0.04 0.04 74 1010.5
20260906003044 81 116 0.0 2.6 0.01 0.04 0.04 75 1010.5
20260906002934 81 116 0.0 2.6 0.03 0.04 0.04 75 1010.5
20260906002820 81 116 0.0 2.6 0.04 0.04 0.04 75 1010.6
20260906002727 81 219 0.0 2.6 0.04 0.04 0.04 76 1010.5
20260906002635 81 219 0.9 3.5 0.04 0.04 0.04 77 1010.5
20260906002521 81 219 0.9 3.5 0.04 0.04 0.04 75 1010.7
20260906002449 81 208 0.9 3.5 0.04 0.04 0.04 76 1010.6
20260906002319 81 128 0.0 3.5 0.04 0.04 0.04 76 1010.6
20260906002227 81 128 0.0 3.5 0.04 0.04 0.04 75 1010.7
20260906002133 81 128 0.0 7.0 0.04 0.04 0.04 75 1010.6
20260906002019 81 173 0.0 7.0 0.04 0.04 0.04 75 1010.7
20260906001926 81 173 0.9 7.0 0.04 0.04 0.04 75 1010.7
20260906001833 81 158 0.9 7.0 0.04 0.04 0.04 75 1010.8
20260906001807 81 149 0.9 7.0 0.04 0.04 0.04 75 1010.8
20260906001521 81 190 1.7 7.0 0.04 0.04 0.04 75 1010.8
20260906001428 81 193 2.6 12.2 0.04 0.04 0.04 75 1010.8
20260906001334 81 186 3.5 13.9 0.04 0.04 0.04 76 1010.9
20260906001225 81 197 3.5 13.9 0.04 0.04 0.04 75 1010.9
20260906001132 81 180 4.3 13.9 0.04 0.04 0.04 76 1010.9
20260906001018 81 152 5.2 13.9 0.04 0.04 0.04 76 1011.1
20260906000925 81 121 5.2 13.9 0.04 0.04 0.04 75 1011.1
20260906000831 81 113 4.3 13.9 0.04 0.04 0.04 75 1011.0
20260906000758 81 123 4.3 13.9 0.04 0.04 0.04 75 1011.1
20260906000629 81 131 6.1 13.9 0.04 0.04 0.04 74 1011.1
20260906000518 81 171 7.8 13.9 0.04 0.04 0.04 75 1011.2
20260906000425 81 156 7.0 13.0 0.04 0.04 0.04 75 1011.2
20260906000330 81 181 5.2 8.7 0.04 0.04 0.04 75 1011.3
20260906000303 81 142 5.2 8.7 0.04 0.04 0.04 76 1011.3
20260906000019 81 134 6.1 12.2 0.04 0.04 0.04 76 1011.2
20260905235926 81 194 5.2 12.2 0.04 0.04 0.04 76 1011.3
20260905235834 81 170 5.2 12.2 0.04 0.04 0.04 77 1011.3
20260905235742 81 172 5.2 12.2 0.04 0.04 0.04 77 1011.3
20260905235628 81 171 6.1 12.2 0.04 0.04 0.04 77 1011.4
20260905235534 81 135 6.1 12.2 0.04 0.04 0.04 79 1011.2
20260905235423 81 74 5.2 13.0 0.04 0.04 0.04 79 1011.3
20260905235331 81 116 5.2 13.0 0.04 0.04 0.04 79 1011.4
20260905235218 81 149 7.8 13.0 0.04 0.04 0.04 77 1011.4
20260905235125 81 130 7.0 13.0 0.04 0.04 0.04 79 1011.4
20260905235031 80 128 6.1 15.6 0.04 0.04 0.04 80 1011.4
20260905234923 80 130 5.2 20.0 0.04 0.04 0.04 80 1011.3
20260905234830 80 115 7.0 20.0 0.04 0.04 0.04 81 1011.3
20260905234800 80 53 8.7 23.5 0.04 0.04 0.04 81 1011.3
20260905234534 80 109 9.6 23.5 0.04 0.04 0.04 80 1011.3
20260905234425 80 104 9.6 23.5 0.04 0.04 0.04 81 1011.3
20260905234331 80 146 10.4 23.5 0.04 0.04 0.04 80 1011.2
20260905234219 80 115 13.0 23.5 0.04 0.04 0.04 80 1011.2
20260905234126 81 111 13.9 23.5 0.04 0.04 0.04 80 1011.2
20260905234033 81 118 15.6 23.5 0.04 0.04 0.04 80 1011.3
20260905233921 81 132 17.4 23.5 0.04 0.04 0.04 79 1011.3
20260905233853 82 113 16.5 23.5 0.04 0.04 0.04 79 1011.3
20260905233719 83 126 14.8 23.5 0.04 0.04 0.04 78 1011.4
20260905233626 83 122 13.9 23.5 0.04 0.04 0.04 78 1011.5
20260905233532 84 126 13.9 23.5 0.04 0.04 0.04 77 1011.5
20260905233419 85 183 15.6 23.5 0.04 0.04 0.04 75 1011.5
20260905233326 86 128 16.5 23.5 0.04 0.04 0.04 68 1011.3
20260905233301 87 136 15.6 23.5 0.04 0.04 0.04 68 1011.3
20260905233034 90 103 14.8 21.7 0.04 0.04 0.04 65 1010.9
20260905232942 92 90 13.9 21.7 0.04 0.04 0.04 64 1010.8
20260905232829 93 142 14.8 21.7 0.04 0.04 0.04 64 1010.8
20260905232718 95 86 15.6 22.6 0.03 0.03 0.03 61 1010.7
20260905232645 96 148 12.2 19.1 0.03 0.03 0.03 60 1010.7
20260905232530 97 123 7.0 15.6 0.00 0.00 0.00 59 1010.7
20260905232438 97 90 4.3 7.0 0.00 0.00 0.00 57 1010.5
20260905232326 97 44 4.3 6.1 0.00 0.00 0.00 56 1010.4
20260905232253 97 32 4.3 6.1 0.00 0.00 0.00 55 1010.3
20260905232119 97 42 3.5 4.3 0.00 0.00 0.00 54 1010.2
20260905232030 97 41 2.6 4.3 0.00 0.00 0.00 53 1010.3
20260905231918 97 31 1.7 3.5 0.00 0.00 0.00 54 1010.1
20260905231825 97 348 1.7 3.5 0.00 0.00 0.00 54 1010.2
20260905231753 97 331 1.7 3.5 0.00 0.00 0.00 55 1010.2
20260905231529 97 333 1.7 3.5 0.00 0.00 0.00 55 1010.2
20260905231437 97 351 2.6 3.5 0.00 0.00 0.00 55 1010.2
20260905231324 97 12 2.6 3.5 0.00 0.00 0.00 53 1010.1
20260905231233 97 5 1.7 2.6 0.00 0.00 0.00 53 1010.1
20260905231121 97 5 0.9 2.6 0.00 0.00 0.00 52 1010.2
20260905231029 97 5 0.9 2.6 0.00 0.00 0.00 52 1010.2
20260905230921 97 5 0.9 2.6 0.00 0.00 0.00 52 1010.1
20260905230827 97 5 1.7 2.6 0.00 0.00 0.00 52 1010.1
20260905230735 97 5 1.7 2.6 0.00 0.00 0.00 52 1010.1
20260905230643 97 5 1.7 2.6 0.00 0.00 0.00 52 1010.2
20260905230528 97 5 1.7 2.6 0.00 0.00 0.00 52 1010.1
20260905230418 97 360 1.7 2.6 0.00 0.00 0.00 52 1010.2
20260905230324 97 360 1.7 2.6 0.00 0.00 0.00 51 1010.1
20260905230255 97 10 1.7 2.6 0.00 0.00 0.00 51 1010.1
20260905230048 98 10 1.7 2.6 0.00 0.00 0.00 51 1010.1
20260905225933 98 10 1.7 2.6 0.00 0.00 0.00 51 1010.0
20260905225823 98 10 1.7 3.5 0.00 0.00 0.00 51 1010.0
20260905225731 98 10 1.7 3.5 0.00 0.00 0.00 51 1010.1
20260905225637 98 360 1.7 3.5 0.00 0.00 0.00 51 1010.1
20260905225523 98 360 1.7 3.5 0.00 0.00 0.00 51 1010.1
20260905225429 98 360 1.7 3.5 0.00 0.00 0.00 50 1010.1
20260905225334 98 360 2.6 3.5 0.00 0.00 0.00 50 1010.1
20260905225227 99 5 2.6 3.5 0.00 0.00 0.00 51 1010.1
20260905225133 99 5 1.7 4.3 0.00 0.00 0.00 50 1010.1
20260905225020 99 5 2.6 4.3 0.00 0.00 0.00 50 1010.1
20260905224929 99 5 2.6 4.3 0.00 0.00 0.00 50 1010.0
20260905224809 99 11 2.6 4.3 0.00 0.00 0.00 51 1010.1
20260905224523 99 11 2.6 4.3 0.00 0.00 0.00 50 1010.0
20260905224452 99 355 2.6 4.3 0.00 0.00 0.00 49 1010.1
20260905224357 99 351 2.6 4.3 0.00 0.00 0.00 49 1010.1
20260905224222 99 22 2.6 4.3 0.00 0.00 0.00 49 1010.1
20260905224130 99 5 2.6 4.3 0.00 0.00 0.00 48 1010.0
20260905224020 99 43 1.7 4.3 0.00 0.00 0.00 49 1010.0
20260905223928 100 29 1.7 4.3 0.00 0.00 0.00 48 1010.0
20260905223834 100 34 1.7 4.3 0.00 0.00 0.00 48 1010.1
20260905223741 100 47 2.6 4.3 0.00 0.00 0.00 49 1010.0
20260905223628 100 19 2.6 4.3 0.00 0.00 0.00 48 1010.1
20260905223555 100 42 2.6 4.3 0.00 0.00 0.00 49 1010.1
20260905223420 100 24 1.7 4.3 0.00 0.00 0.00 48 1010.1
20260905223303 100 9 1.7 4.3 0.00 0.00 0.00 48 1010.1
20260905223056 100 5 2.6 4.3 0.00 0.00 0.00 48 1010.2
20260905222922 100 24 3.5 4.3 0.00 0.00 0.00 48 1010.1
20260905222830 100 29 2.6 4.3 0.00 0.00 0.00 48 1010.2
20260905222721 100 40 1.7 4.3 0.00 0.00 0.00 47 1010.1
20260905222648 100 78 2.6 4.3 0.00 0.00 0.00 47 1010.2
20260905222554 100 41 2.6 4.3 0.00 0.00 0.00 46 1010.0
20260905222420 100 59 2.6 4.3 0.00 0.00 0.00 46 1010.1
20260905222349 100 57 1.7 3.5 0.00 0.00 0.00 46 1010.2
20260905222234 100 47 1.7 3.5 0.00 0.00 0.00 47 1010.1
20260905222125 100 89 0.9 3.5 0.00 0.00 0.00 46 1010.1
20260905222031 100 34 0.9 2.6 0.00 0.00 0.00 46 1010.1
20260905221918 100 360 1.7 4.3 0.00 0.00 0.00 47 1010.1
20260905221845 101 360 1.7 4.3 0.00 0.00 0.00 46 1010.1
20260905221817 101 360 0.9 4.3 0.00 0.00 0.00 46 1010.1
20260905221533 101 325 0.9 4.3 0.00 0.00 0.00 46 1010.1
20260905221420 101 325 0.9 4.3 0.00 0.00 0.00 46 1010.1
20260905221346 101 30 1.7 4.3 0.00 0.00 0.00 47 1010.2
20260905221232 101 38 1.7 7.0 0.00 0.00 0.00 47 1010.2
20260905221140 101 20 2.6 7.8 0.00 0.00 0.00 47 1010.2
20260905221027 101 15 2.6 7.8 0.00 0.00 0.00 47 1010.2
20260905220919 101 348 1.7 7.8 0.00 0.00 0.00 46 1010.2
20260905220826 100 355 1.7 7.8 0.00 0.00 0.00 47 1010.3
20260905220732 100 355 2.6 7.8 0.00 0.00 0.00 47 1010.2
20260905220639 100 9 2.6 7.8 0.00 0.00 0.00 47 1010.2
20260905220525 100 11 2.6 7.8 0.00 0.00 0.00 47 1010.2
20260905220432 100 9 4.3 7.8 0.00 0.00 0.00 48 1010.2
20260905220339 101 5 4.3 7.8 0.00 0.00 0.00 48 1010.3
20260905220253 100 346 3.5 7.0 0.00 0.00 0.00 48 1010.3
20260905220026 100 53 2.6 7.8 0.00 0.00 0.00 47 1010.2
20260905215933 100 44 3.5 8.7 0.00 0.00 0.00 47 1010.2
20260905215820 100 360 3.5 8.7 0.00 0.00 0.00 47 1010.3
20260905215732 100 28 3.5 8.7 0.00 0.00 0.00 47 1010.2
20260905215620 100 49 3.5 8.7 0.00 0.00 0.00 47 1010.3
20260905215548 100 40 4.3 8.7 0.00 0.00 0.00 47 1010.3
20260905215453 100 11 4.3 8.7 0.00 0.00 0.00 48 1010.3
20260905215318 100 44 5.2 8.7 0.00 0.00 0.00 48 1010.3
20260905215224 100 23 5.2 8.7 0.00 0.00 0.00 47 1010.2
20260905215131 100 41 4.3 8.7 0.00 0.00 0.00 46 1010.3
20260905215022 101 61 3.5 7.0 0.00 0.00 0.00 46 1010.3
20260905214929 101 42 3.5 7.0 0.00 0.00 0.00 46 1010.3
20260905214836 101 65 3.5 6.1 0.00 0.00 0.00 46 1010.3
20260905214806 101 43 3.5 6.1 0.00 0.00 0.00 46 1010.3
20260905214523 101 50 3.5 7.8 0.00 0.00 0.00 48 1010.4
20260905214431 101 26 2.6 7.8 0.00 0.00 0.00 47 1010.3
20260905214318 101 67 2.6 7.8 0.00 0.00 0.00 47 1010.3
20260905214225 101 44 2.6 7.8 0.00 0.00 0.00 47 1010.3
20260905214132 101 54 2.6 7.8 0.00 0.00 0.00 46 1010.2
20260905214018 101 30 3.5 8.7 0.00 0.00 0.00 46 1010.3
20260905213949 101 39 4.3 8.7 0.00 0.00 0.00 46 1010.4
20260905213835 101 53 3.5 8.7 0.00 0.00 0.00 48 1010.2
20260905213722 101 36 0.9 8.7 0.00 0.00 0.00 46 1010.3
20260905213650 101 71 0.9 8.7 0.00 0.00 0.00 49 1010.3
20260905213536 101 355 1.7 8.7 0.00 0.00 0.00 46 1010.4
20260905213443 101 350 2.6 8.7 0.00 0.00 0.00 45 1010.3
20260905213329 101 12 2.6 4.3 0.00 0.00 0.00 45 1010.4
20260905213304 101 5 1.7 4.3 0.00 0.00 0.00 46 1010.4
20260905213018 101 144 0.9 4.3 0.00 0.00 0.00 45 1010.3
20260905212946 101 84 0.9 4.3 0.00 0.00 0.00 45 1010.3
20260905212853 101 290 0.9 4.3 0.00 0.00 0.00 44 1010.3
20260905212719 101 290 1.7 7.0 0.00 0.00 0.00 45 1010.3
20260905212630 101 282 2.6 7.8 0.00 0.00 0.00 45 1010.3
20260905212557 101 309 2.6 7.8 0.00 0.00 0.00 45 1010.4
20260905212422 101 10 2.6 7.8 0.00 0.00 0.00 46 1010.3
20260905212330 101 351 3.5 7.8 0.00 0.00 0.00 45 1010.2
20260905212237 101 32 3.5 7.8 0.00 0.00 0.00 45 1010.4
20260905212125 101 5 3.5 7.8 0.00 0.00 0.00 46 1010.3
20260905212055 101 19 3.5 7.8 0.00 0.00 0.00 46 1010.2
20260905211920 101 22 3.5 7.8 0.00 0.00 0.00 46 1010.4
20260905211848 101 360 4.3 7.8 0.00 0.00 0.00 45 1010.3
20260905211818 101 355 3.5 7.8 0.00 0.00 0.00 45 1010.3
20260905211550 101 69 0.9 7.0 0.00 0.00 0.00 44 1010.3
20260905211422 101 355 0.9 7.0 0.00 0.00 0.00 44 1010.4
20260905211327 101 355 1.7 7.0 0.00 0.00 0.00 43 1010.4
20260905211233 102 355 1.7 7.0 0.00 0.00 0.00 45 1010.3
20260905211119 101 337 1.7 7.0 0.00 0.00 0.00 45 1010.4
20260905211027 101 320 1.7 7.0 0.00 0.00 0.00 45 1010.4
20260905210934 102 318 2.6 7.0 0.00 0.00 0.00 45 1010.4
20260905210825 102 9 4.3 7.0 0.00 0.00 0.00 46 1010.4
20260905210753 102 26 4.3 7.0 0.00 0.00 0.00 46 1010.3
20260905210658 102 22 3.5 7.0 0.00 0.00 0.00 46 1010.4
20260905210543 102 47 0.9 5.2 0.00 0.00 0.00 45 1010.3
20260905210430 102 20 0.9 5.2 0.00 0.00 0.00 46 1010.4
20260905210337 102 57 1.7 5.2 0.00 0.00 0.00 47 1010.4
20260905210312 102 360 2.6 5.2 0.00 0.00 0.00 47 1010.4
20260905210024 102 355 2.6 5.2 0.00 0.00 0.00 46 1010.3
20260905205951 102 5 2.6 5.2 0.00 0.00 0.00 45 1010.3
20260905205858 102 291 3.5 5.2 0.00 0.00 0.00 46 1010.2
20260905205723 102 290 3.5 7.8 0.00 0.00 0.00 47 1010.3
20260905205630 102 346 3.5 7.8 0.00 0.00 0.00 46 1010.3
20260905205557 102 348 3.5 7.8 0.00 0.00 0.00 48 1010.4
20260905205427 102 9 1.7 7.8 0.00 0.00 0.00 46 1010.3
20260905205335 102 295 1.7 7.8 0.00 0.00 0.00 47 1010.3
20260905205241 102 319 3.5 7.8 0.00 0.00 0.00 47 1010.4
20260905205127 102 10 3.5 7.8 0.00 0.00 0.00 47 1010.4
20260905205033 102 336 5.2 7.8 0.00 0.00 0.00 47 1010.4
20260905204959 101 333 5.2 7.8 0.00 0.00 0.00 48 1010.4
20260905204827 101 22 3.5 7.8 0.00 0.00 0.00 48 1010.5
20260905204758 101 350 2.6 7.0 0.00 0.00 0.00 48 1010.5
20260905204532 101 355 1.7 2.6 0.00 0.00 0.00 47 1010.5
20260905204418 101 294 0.9 2.6 0.00 0.00 0.00 46 1010.5
20260905204324 101 155 0.9 3.5 0.00 0.00 0.00 45 1010.5
20260905204236 101 211 0.9 3.5 0.00 0.00 0.00 45 1010.6
20260905204122 101 209 0.9 3.5 0.00 0.00 0.00 45 1010.5
20260905204030 101 194 0.9 7.0 0.00 0.00 0.00 45 1010.6
20260905203918 101 298 0.9 7.8 0.00 0.00 0.00 45 1010.6
20260905203825 101 79 0.9 7.8 0.00 0.00 0.00 45 1010.6
20260905203735 101 44 0.9 7.8 0.00 0.00 0.00 48 1010.7
20260905203621 101 17 1.7 7.8 0.00 0.00 0.00 45 1010.7
20260905203527 101 17 2.6 7.8 0.00 0.00 0.00 45 1010.7
20260905203433 101 36 2.6 7.8 0.00 0.00 0.00 48 1010.7
20260905203342 101 31 4.3 7.8 0.00 0.00 0.00 47 1010.7
20260905203316 101 309 6.1 7.8 0.00 0.00 0.00 47 1010.7
20260905203029 101 27 5.2 7.8 0.00 0.00 0.00 47 1010.7
20260905202935 101 355 4.3 7.8 0.00 0.00 0.00 46 1010.8
20260905202842 101 55 5.2 7.8 0.00 0.00 0.00 47 1010.7
20260905202728 101 65 4.3 7.8 0.00 0.00 0.00 46 1010.7
20260905202635 101 53 2.6 7.0 0.00 0.00 0.00 47 1010.8
20260905202525 101 11 2.6 7.0 0.00 0.00 0.00 47 1010.8
20260905202432 101 360 2.6 7.0 0.00 0.00 0.00 47 1010.8
20260905202318 100 5 2.6 7.0 0.00 0.00 0.00 47 1010.8
20260905202224 100 324 2.6 7.0 0.00 0.00 0.00 48 1010.8
20260905202132 100 329 3.5 7.0 0.00 0.00 0.00 48 1010.8
20260905202022 100 349 4.3 7.0 0.00 0.00 0.00 50 1010.8
20260905201929 100 12 2.6 7.0 0.00 0.00 0.00 49 1010.8
20260905201835 100 338 0.9 4.3 0.00 0.00 0.00 47 1010.9
20260905201805 100 340 0.9 4.3 0.00 0.00 0.00 47 1010.9
20260905201538 100 235 1.7 4.3 0.00 0.00 0.00 47 1010.9
20260905201428 101 154 1.7 4.3 0.00 0.00 0.00 46 1010.9
20260905201335 101 223 2.6 4.3 0.00 0.00 0.00 47 1011.0
20260905201221 101 248 2.6 4.3 0.00 0.00 0.00 46 1011.0
20260905201128 101 186 1.7 4.3 0.00 0.00 0.00 46 1011.0
20260905201035 101 179 1.7 4.3 0.00 0.00 0.00 46 1011.1
20260905200942 101 311 2.6 5.2 0.00 0.00 0.00 47 1011.1
20260905200832 101 284 1.7 4.3 0.00 0.00 0.00 49 1011.0
20260905200720 101 10 2.6 4.3 0.00 0.00 0.00 48 1011.1
20260905200646 101 5 2.6 4.3 0.00 0.00 0.00 48 1011.1
20260905200531 101 223 0.9 5.2 0.00 0.00 0.00 48 1011.2
20260905200436 101 36 0.9 5.2 0.00 0.00 0.00 48 1011.1
20260905200342 101 30 1.7 5.2 0.00 0.00 0.00 52 1011.1
20260905200255 101 30 2.6 5.2 0.00 0.00 0.00 48 1011.1
20260905200027 101 319 1.7 7.0 0.00 0.00 0.00 49 1011.3
20260905195935 101 70 1.7 8.7 0.00 0.00 0.00 47 1011.3
20260905195820 101 26 3.5 8.7 0.00 0.00 0.00 46 1011.3
20260905195727 101 300 4.3 8.7 0.00 0.00 0.00 47 1011.4
20260905195637 101 321 3.5 8.7 0.00 0.00 0.00 47 1011.4
20260905195524 101 276 0.9 8.7 0.00 0.00 0.00 47 1011.4
20260905195432 101 24 0.9 8.7 0.00 0.00 0.00 47 1011.4
20260905195339 101 355 2.6 8.7 0.00 0.00 0.00 48 1011.5
20260905195226 101 355 4.3 8.7 0.00 0.00 0.00 48 1011.5
20260905195132 101 313 5.2 8.7 0.00 0.00 0.00 48 1011.4
20260905195023 101 336 3.5 7.0 0.00 0.00 0.00 48 1011.5
20260905194929 101 355 3.5 7.0 0.00 0.00 0.00 47 1011.5
20260905194837 101 9 3.5 7.0 0.00 0.00 0.00 50 1011.5
20260905194808 101 10 4.3 7.0 0.00 0.00 0.00 50 1011.5
20260905194526 101 336 4.3 7.0 0.00 0.00 0.00 48 1011.5
20260905194433 101 355 3.5 7.0 0.00 0.00 0.00 48 1011.5
20260905194319 100 296 3.5 7.8 0.00 0.00 0.00 48 1011.4
20260905194227 100 248 2.6 8.7 0.00 0.00 0.00 49 1011.5
20260905194134 100 15 2.6 8.7 0.00 0.00 0.00 49 1011.5
20260905194020 100 291 3.5 8.7 0.00 0.00 0.00 51 1011.4
20260905193947 100 340 3.5 8.7 0.00 0.00 0.00 52 1011.6
20260905193836 100 331 3.5 8.7 0.00 0.00 0.00 51 1011.5
20260905193722 100 12 4.3 8.7 0.00 0.00 0.00 51 1011.6
20260905193628 100 331 5.2 8.7 0.00 0.00 0.00 51 1011.6
20260905193556 100 9 4.3 8.7 0.00 0.00 0.00 51 1011.7
20260905193440 100 19 1.7 7.8 0.00 0.00 0.00 48 1011.6
20260905193328 100 63 1.7 7.8 0.00 0.00 0.00 48 1011.6
20260905193303 100 5 2.6 7.8 0.00 0.00 0.00 47 1011.6
20260905193036 100 70 4.3 7.8 0.00 0.00 0.00 48 1011.6
20260905192922 100 41 3.5 7.8 0.00 0.00 0.00 47 1011.6
20260905192830 100 49 5.2 7.8 0.00 0.00 0.00 48 1011.6
20260905192757 100 26 5.2 7.8 0.00 0.00 0.00 48 1011.7
20260905192626 100 61 3.5 7.8 0.00 0.00 0.00 49 1011.6
20260905192532 100 36 3.5 7.8 0.00 0.00 0.00 49 1011.6
20260905192458 100 319 4.3 7.8 0.00 0.00 0.00 50 1011.6
20260905192343 100 346 2.6 8.7 0.00 0.00 0.00 49 1011.6
20260905192229 100 297 1.7 8.7 0.00 0.00 0.00 50 1011.7
20260905192155 100 14 1.7 8.7 0.00 0.00 0.00 48 1011.7
20260905192021 100 51 2.6 8.7 0.00 0.00 0.00 50 1011.8
20260905191930 100 355 2.6 8.7 0.00 0.00 0.00 49 1011.7
20260905191838 100 331 3.5 8.7 0.00 0.00 0.00 52 1011.8
20260905191809 99 292 4.3 8.7 0.00 0.00 0.00 50 1011.8
20260905191523 99 307 4.3 8.7 0.00 0.00 0.00 50 1011.8
20260905191435 99 333 3.5 7.0 0.00 0.00 0.00 51 1011.8
20260905191321 99 355 3.5 7.0 0.00 0.00 0.00 51 1011.9
20260905191229 99 322 2.6 5.2 0.00 0.00 0.00 52 1011.9
20260905191135 99 30 2.6 5.2 0.00 0.00 0.00 51 1011.9
20260905191022 99 36 1.7 5.2 0.00 0.00 0.00 53 1011.9
20260905190929 99 5 2.6 5.2 0.00 0.00 0.00 49 1011.9
20260905190820 99 360 1.7 5.2 0.00 0.00 0.00 51 1011.9
20260905190728 99 302 1.7 4.3 0.00 0.00 0.00 50 1012.0
20260905190656 99 22 1.7 4.3 0.00 0.00 0.00 51 1012.0
20260905190523 99 78 1.7 5.2 0.00 0.00 0.00 50 1012.0
20260905190430 99 308 2.6 5.2 0.00 0.00 0.00 51 1012.1
20260905190336 99 314 2.6 5.2 0.00 0.00 0.00 52 1012.1
20260905190312 99 335 1.7 5.2 0.00 0.00 0.00 52 1012.1
20260905190024 99 303 1.7 5.2 0.00 0.00 0.00 50 1012.1
20260905185929 99 56 3.5 5.2 0.00 0.00 0.00 50 1012.1
20260905185856 99 76 2.6 7.0 0.00 0.00 0.00 51 1012.2
20260905185727 99 91 2.6 7.8 0.00 0.00 0.00 50 1012.2
20260905185632 99 83 3.5 7.8 0.00 0.00 0.00 50 1012.2
20260905185537 99 66 2.6 9.6 0.00 0.00 0.00 54 1012.2
20260905185423 99 121 3.5 9.6 0.00 0.00 0.00 54 1012.2
20260905185330 99 144 3.5 9.6 0.00 0.00 0.00 53 1012.2
20260905185258 99 131 3.5 9.6 0.00 0.00 0.00 52 1012.3
20260905185143 99 56 3.5 9.6 0.00 0.00 0.00 49 1012.2
20260905185049 99 28 3.5 9.6 0.00 0.00 0.00 51 1012.3
20260905184921 99 348 4.3 9.6 0.00 0.00 0.00 49 1012.3
20260905184828 99 46 4.3 9.6 0.00 0.00 0.00 50 1012.3
20260905184757 99 77 4.3 7.8 0.00 0.00 0.00 52 1012.3
20260905184530 99 15 4.3 7.8 0.00 0.00 0.00 51 1012.3
20260905184421 99 321 4.3 7.8 0.00 0.00 0.00 52 1012.4
20260905184328 99 348 4.3 7.8 0.00 0.00 0.00 53 1012.4
20260905184234 99 346 3.5 7.8 0.00 0.00 0.00 53 1012.4
20260905184121 99 27 2.6 7.8 0.00 0.00 0.00 52 1012.4
20260905184028 99 337 2.6 7.8 0.00 0.00 0.00 52 1012.4
20260905183919 99 318 2.6 7.8 0.00 0.00 0.00 53 1012.5
20260905183825 99 283 4.3 7.8 0.00 0.00 0.00 54 1012.4
20260905183733 99 329 4.3 7.8 0.00 0.00 0.00 54 1012.4
20260905183621 99 346 2.6 7.0 0.00 0.00 0.00 52 1012.4
20260905183548 99 317 1.7 7.0 0.00 0.00 0.00 52 1012.4
20260905183434 98 294 2.6 7.0 0.00 0.00 0.00 53 1012.5
20260905183342 98 277 4.3 7.0 0.00 0.00 0.00 54 1012.5
20260905183256 98 302 4.3 7.0 0.00 0.00 0.00 52 1012.5
20260905183029 98 253 3.5 7.8 0.00 0.00 0.00 53 1012.5
20260905182956 98 5 2.6 7.8 0.00 0.00 0.00 53 1012.5
20260905182823 98 313 2.6 7.8 0.00 0.00 0.00 53 1012.5
20260905182731 98 291 2.6 7.8 0.00 0.00 0.00 54 1012.5
20260905182622 98 261 3.5 7.8 0.00 0.00 0.00 54 1012.6
20260905182530 98 281 3.5 7.8 0.00 0.00 0.00 54 1012.5
20260905182457 98 321 2.6 7.8 0.00 0.00 0.00 54 1012.5
20260905182322 98 307 3.5 7.8 0.00 0.00 0.00 54 1012.5
20260905182228 98 300 5.2 7.8 0.00 0.00 0.00 55 1012.5
20260905182118 98 290 4.3 7.8 0.00 0.00 0.00 54 1012.5
20260905182026 98 315 4.3 8.7 0.00 0.00 0.00 55 1012.5
20260905181932 98 309 4.3 8.7 0.00 0.00 0.00 55 1012.5
20260905181839 98 321 3.5 8.7 0.00 0.00 0.00 55 1012.5
20260905181810 98 311 4.3 8.7 0.00 0.00 0.00 56 1012.5
20260905181526 98 5 4.3 8.7 0.00 0.00 0.00 56 1012.7
20260905181433 98 334 4.3 8.7 0.00 0.00 0.00 56 1012.7
20260905181321 97 355 5.2 8.7 0.00 0.00 0.00 55 1012.7
20260905181228 97 14 3.5 8.7 0.00 0.00 0.00 55 1012.7
20260905181134 97 40 0.9 6.1 0.00 0.00 0.00 54 1012.7
20260905181025 97 109 1.7 6.1 0.00 0.00 0.00 53 1012.7
20260905180932 97 77 1.7 6.1 0.00 0.00 0.00 55 1012.7
20260905180820 97 171 2.6 6.1 0.00 0.00 0.00 53 1012.8
20260905180727 98 109 3.5 6.1 0.00 0.00 0.00 52 1012.8
20260905180634 98 135 3.5 6.1 0.00 0.00 0.00 56 1012.7
20260905180520 98 108 2.6 5.2 0.00 0.00 0.00 54 1012.7
20260905180452 98 80 1.7 6.1 0.00 0.00 0.00 54 1012.8
20260905180358 97 51 0.9 5.2 0.00 0.00 0.00 54 1012.8
20260905180330 97 44 0.9 7.0 0.00 0.00 0.00 55 1012.9
20260905180022 97 327 2.6 7.0 0.00 0.00 0.00 53 1012.9
20260905175929 97 9 2.6 7.0 0.00 0.00 0.00 55 1012.9
20260905175820 97 360 3.5 7.0 0.00 0.00 0.00 54 1012.9
20260905175726 97 25 3.5 7.0 0.00 0.00 0.00 54 1013.0
20260905175632 97 30 4.3 7.0 0.00 0.00 0.00 54 1012.9
20260905175519 97 333 4.3 7.0 0.00 0.00 0.00 56 1012.9
20260905175427 97 337 3.5 7.0 0.00 0.00 0.00 56 1013.0
20260905175318 97 5 1.7 7.8 0.00 0.00 0.00 55 1013.0
20260905175227 97 19 0.9 7.8 0.00 0.00 0.00 56 1013.0
20260905175134 97 261 0.9 7.8 0.00 0.00 0.00 53 1013.0
20260905175021 97 274 0.9 7.8 0.00 0.00 0.00 54 1012.9
20260905174928 97 329 0.9 7.8 0.00 0.00 0.00 54 1013.0
20260905174836 97 329 2.6 7.8 0.00 0.00 0.00 56 1012.9
20260905174811 97 322 4.3 7.8 0.00 0.00 0.00 56 1012.9
20260905174524 97 351 6.1 7.8 0.00 0.00 0.00 56 1013.0
20260905174432 97 5 5.2 7.8 0.00 0.00 0.00 56 1013.0
20260905174320 97 327 4.3 7.8 0.00 0.00 0.00 55 1013.0
20260905174230 97 313 2.6 7.0 0.00 0.00 0.00 56 1013.0
20260905174119 97 355 1.7 4.3 0.00 0.00 0.00 56 1013.1
20260905174027 97 206 2.6 4.3 0.00 0.00 0.00 55 1013.1
20260905173934 97 308 2.6 4.3 0.00 0.00 0.00 55 1013.1
20260905173822 97 339 2.6 4.3 0.00 0.00 0.00 57 1013.0
20260905173748 97 314 2.6 4.3 0.00 0.00 0.00 57 1013.1
20260905173639 97 286 2.6 4.3 0.00 0.00 0.00 56 1013.1
20260905173525 97 252 1.7 4.3 0.00 0.00 0.00 58 1013.1
20260905173432 97 191 0.9 5.2 0.00 0.00 0.00 57 1013.1
20260905173338 97 100 0.9 5.2 0.00 0.00 0.00 55 1013.2
20260905173309 97 186 1.7 5.2 0.00 0.00 0.00 55 1013.2
20260905173026 97 20 2.6 7.0 0.00 0.00 0.00 58 1013.1
20260905172953 97 25 2.6 7.8 0.00 0.00 0.00 56 1013.2
20260905172818 97 5 2.6 7.8 0.00 0.00 0.00 57 1013.1
20260905172725 96 346 2.6 7.8 0.00 0.00 0.00 56 1013.3
20260905172633 96 355 3.5 7.8 0.00 0.00 0.00 57 1013.3
20260905172541 96 323 3.5 7.8 0.00 0.00 0.00 57 1013.3
20260905172447 96 296 3.5 7.8 0.00 0.00 0.00 57 1013.3
20260905172336 96 344 4.3 7.8 0.00 0.00 0.00 58 1013.3
20260905172223 96 321 5.2 8.7 0.00 0.00 0.00 57 1013.3
20260905172129 96 339 6.1 8.7 0.00 0.00 0.00 57 1013.3
20260905172056 96 26 5.2 8.7 0.00 0.00 0.00 57 1013.3
20260905171922 96 360 4.3 8.7 0.00 0.00 0.00 58 1013.4
20260905171829 96 343 4.3 8.7 0.00 0.00 0.00 56 1013.3
20260905171804 96 5 5.2 8.7 0.00 0.00 0.00 58 1013.3
20260905171518 96 328 6.1 8.7 0.00 0.00 0.00 57 1013.3
20260905171425 96 308 6.1 8.7 0.00 0.00 0.00 59 1013.4
20260905171332 96 327 4.3 8.7 0.00 0.00 0.00 59 1013.4
20260905171223 96 339 3.5 6.1 0.00 0.00 0.00 57 1013.4
20260905171130 96 348 3.5 6.1 0.00 0.00 0.00 57 1013.4
20260905171057 96 355 3.5 6.1 0.00 0.00 0.00 58 1013.4
20260905170924 96 223 2.6 6.1 0.00 0.00 0.00 57 1013.4
20260905170832 96 225 2.6 6.1 0.00 0.00 0.00 56 1013.4
20260905170719 96 212 2.6 6.1 0.00 0.00 0.00 56 1013.4
20260905170630 96 114 2.6 6.1 0.00 0.00 0.00 56 1013.3
20260905170536 97 211 3.5 7.0 0.00 0.00 0.00 57 1013.5
20260905170424 97 228 3.5 7.0 0.00 0.00 0.00 58 1013.5
20260905170331 97 302 2.6 7.0 0.00 0.00 0.00 58 1013.4
20260905170301 97 252 2.6 7.0 0.00 0.00 0.00 58 1013.4
20260905170037 96 268 3.5 7.0 0.00 0.00 0.00 57 1013.5
20260905165945 97 309 2.6 7.0 0.00 0.00 0.00 58 1013.4
20260905165831 97 281 1.7 7.0 0.00 0.00 0.00 56 1013.5
20260905165738 97 203 1.7 7.0 0.00 0.00 0.00 58 1013.5
20260905165623 96 313 2.6 7.0 0.00 0.00 0.00 57 1013.5
20260905165530 96 360 2.6 7.0 0.00 0.00 0.00 58 1013.4
20260905165420 96 355 2.6 7.8 0.00 0.00 0.00 56 1013.4
20260905165327 96 342 3.5 7.8 0.00 0.00 0.00 58 1013.5
20260905165234 96 328 4.3 8.7 0.00 0.00 0.00 58 1013.5
20260905165119 96 338 4.3 8.7 0.00 0.00 0.00 59 1013.6
20260905165025 96 346 3.5 8.7 0.00 0.00 0.00 59 1013.7
20260905164931 96 342 3.5 8.7 0.00 0.00 0.00 59 1013.6
20260905164902 96 348 4.3 8.7 0.00 0.00 0.00 59 1013.6
20260905164811 96 319 5.2 8.7 0.00 0.00 0.00 59 1013.6
20260905164543 96 5 6.1 8.7 0.00 0.00 0.00 60 1013.6
20260905164429 96 348 5.2 8.7 0.00 0.00 0.00 61 1013.6
20260905164336 96 355 4.3 8.7 0.00 0.00 0.00 59 1013.7
20260905164228 96 306 5.2 7.8 0.00 0.00 0.00 58 1013.7
20260905164134 96 325 5.2 7.8 0.00 0.00 0.00 59 1013.7
20260905164022 96 335 4.3 7.8 0.00 0.00 0.00 58 1013.6
20260905163948 96 318 4.3 7.8 0.00 0.00 0.00 58 1013.8
20260905163834 96 273 4.3 7.8 0.00 0.00 0.00 60 1013.7
20260905163721 96 253 4.3 7.0 0.00 0.00 0.00 58 1013.8
20260905163631 96 268 2.6 7.0 0.00 0.00 0.00 58 1013.8
20260905163519 96 313 2.6 7.0 0.00 0.00 0.00 59 1013.7
20260905163445 96 341 2.6 7.0 0.00 0.00 0.00 58 1013.8
20260905163331 96 298 4.3 7.0 0.00 0.00 0.00 58 1013.8
20260905163300 96 282 4.3 7.0 0.00 0.00 0.00 59 1013.8
20260905163037 96 309 2.6 7.0 0.00 0.00 0.00 59 1013.8
20260905162925 96 315 1.7 7.0 0.00 0.00 0.00 60 1013.9
20260905162851 95 226 3.5 7.0 0.00 0.00 0.00 61 1014.0
20260905162737 95 5 4.3 7.0 0.00 0.00 0.00 61 1014.0
20260905162623 95 355 3.5 7.0 0.00 0.00 0.00 61 1014.0
20260905162529 95 5 2.6 7.0 0.00 0.00 0.00 60 1014.0
20260905162419 95 355 2.6 7.0 0.00 0.00 0.00 60 1014.1
20260905162346 95 294 3.5 7.0 0.00 0.00 0.00 60 1014.0
20260905162233 95 267 2.6 7.0 0.00 0.00 0.00 59 1014.0
20260905162120 95 284 3.5 7.0 0.00 0.00 0.00 60 1014.1
20260905162027 95 294 3.5 7.0 0.00 0.00 0.00 59 1014.0
20260905161933 95 288 3.5 7.0 0.00 0.00 0.00 60 1014.0
20260905161844 95 327 2.6 5.2 0.00 0.00 0.00 60 1014.0
20260905161815 95 344 1.7 5.2 0.00 0.00 0.00 59 1014.0
20260905161527 95 48 1.7 5.2 0.00 0.00 0.00 61 1014.1
20260905161434 95 53 2.6 5.2 0.00 0.00 0.00 59 1014.1
20260905161325 95 36 2.6 5.2 0.00 0.00 0.00 63 1014.1
20260905161231 94 20 2.6 7.0 0.00 0.00 0.00 62 1014.1
20260905161157 94 5 2.6 7.0 0.00 0.00 0.00 62 1014.1
20260905161023 94 24 2.6 7.0 0.00 0.00 0.00 62 1014.1
20260905160949 94 287 2.6 7.0 0.00 0.00 0.00 61 1014.1
20260905160835 94 318 2.6 7.0 0.00 0.00 0.00 60 1014.1
20260905160720 94 296 2.6 7.0 0.00 0.00 0.00 61 1014.2
20260905160629 94 318 2.6 7.0 0.00 0.00 0.00 61 1014.2
20260905160518 94 301 4.3 7.0 0.00 0.00 0.00 63 1014.2
20260905160423 94 320 3.5 7.0 0.00 0.00 0.00 64 1014.3
20260905160330 94 322 3.5 5.2 0.00 0.00 0.00 63 1014.3
20260905160300 94 327 3.5 5.2 0.00 0.00 0.00 64 1014.3
20260905160057 93 13 3.5 5.2 0.00 0.00 0.00 63 1014.4
20260905155922 93 321 0.9 4.3 0.00 0.00 0.00 64 1014.2
20260905155829 93 259 0.0 4.3 0.00 0.00 0.00 64 1014.3
20260905155736 93 311 0.0 4.3 0.00 0.00 0.00 63 1014.3
20260905155623 93 311 0.9 4.3 0.00 0.00 0.00 63 1014.3
20260905155530 93 23 0.9 4.3 0.00 0.00 0.00 62 1014.2
20260905155420 93 126 2.6 4.3 0.00 0.00 0.00 61 1014.3
20260905155326 93 126 2.6 4.3 0.00 0.00 0.00 62 1014.3
20260905155253 93 209 2.6 4.3 0.00 0.00 0.00 62 1014.3
20260905155120 93 225 1.7 5.2 0.00 0.00 0.00 61 1014.3
20260905155029 93 186 0.9 5.2 0.00 0.00 0.00 62 1014.3
20260905154919 93 253 0.9 5.2 0.00 0.00 0.00 62 1014.4
20260905154825 93 355 1.7 5.2 0.00 0.00 0.00 63 1014.3
20260905154755 93 355 2.6 5.2 0.00 0.00 0.00 63 1014.3
20260905154528 93 317 3.5 5.2 0.00 0.00 0.00 65 1014.3
20260905154433 93 336 3.5 5.2 0.00 0.00 0.00 63 1014.4
20260905154323 93 313 3.5 5.2 0.00 0.00 0.00 63 1014.3
20260905154230 93 355 2.6 3.5 0.00 0.00 0.00 63 1014.3
20260905154117 93 333 2.6 3.5 0.00 0.00 0.00 63 1014.4
20260905154043 93 322 1.7 3.5 0.00 0.00 0.00 63 1014.4
20260905153929 93 347 0.9 3.5 0.00 0.00 0.00 64 1014.4
20260905153837 93 190 0.9 3.5 0.00 0.00 0.00 64 1014.4
20260905153727 93 287 1.7 3.5 0.00 0.00 0.00 64 1014.4
20260905153633 93 346 0.9 3.5 0.00 0.00 0.00 65 1014.4
20260905153520 93 309 1.7 3.5 0.00 0.00 0.00 65 1014.4
20260905153428 93 295 1.7 4.3 0.00 0.00 0.00 66 1014.5
20260905153335 92 15 1.7 4.3 0.00 0.00 0.00 65 1014.5
20260905153309 92 360 1.7 4.3 0.00 0.00 0.00 65 1014.5
20260905153023 92 5 2.6 4.3 0.00 0.00 0.00 67 1014.5
20260905152930 92 13 2.6 4.3 0.00 0.00 0.00 65 1014.5
20260905152837 92 346 2.6 4.3 0.00 0.00 0.00 66 1014.4
20260905152723 92 360 2.6 4.3 0.00 0.00 0.00 66 1014.4
20260905152634 92 360 2.6 4.3 0.00 0.00 0.00 66 1014.4
20260905152520 92 321 1.7 4.3 0.00 0.00 0.00 65 1014.4
20260905152427 92 275 1.7 7.0 0.00 0.00 0.00 65 1014.3
20260905152332 92 32 2.6 7.0 0.00 0.00 0.00 67 1014.4
20260905152219 92 333 3.5 7.0 0.00 0.00 0.00 66 1014.4
20260905152127 92 360 2.6 7.0 0.00 0.00 0.00 67 1014.4
20260905152036 92 341 2.6 7.0 0.00 0.00 0.00 66 1014.4
20260905151922 92 280 2.6 7.0 0.00 0.00 0.00 66 1014.4
20260905151850 91 325 3.5 7.0 0.00 0.00 0.00 67 1014.3
20260905151800 91 355 3.5 7.0 0.00 0.00 0.00 67 1014.3
20260905151533 91 330 2.6 4.3 0.00 0.00 0.00 67 1014.4
20260905151423 91 5 2.6 4.3 0.00 0.00 0.00 66 1014.5
20260905151351 91 355 1.7 4.3 0.00 0.00 0.00 67 1014.5
20260905151237 91 298 2.6 4.3 0.00 0.00 0.00 67 1014.5
20260905151124 91 360 2.6 4.3 0.00 0.00 0.00 67 1014.4
20260905151031 91 344 1.7 3.5 0.00 0.00 0.00 68 1014.4
20260905150919 91 321 1.7 3.5 0.00 0.00 0.00 69 1014.4
20260905150830 91 313 1.7 2.6 0.00 0.00 0.00 68 1014.4
20260905150757 91 355 0.9 2.6 0.00 0.00 0.00 69 1014.4
20260905150622 91 338 0.9 2.6 0.00 0.00 0.00 69 1014.3
20260905150530 91 320 0.9 2.6 0.00 0.00 0.00 69 1014.3
20260905150457 91 296 1.7 2.6 0.00 0.00 0.00 69 1014.4
20260905150342 91 293 1.7 2.6 0.00 0.00 0.00 68 1014.4
20260905150317 91 307 0.9 2.6 0.00 0.00 0.00 69 1014.4
20260905150030 91 336 0.9 2.6 0.00 0.00 0.00 69 1014.3
20260905145936 91 296 0.9 2.6 0.00 0.00 0.00 69 1014.3
20260905145823 91 306 0.9 2.6 0.00 0.00 0.00 68 1014.4
20260905145731 91 281 0.9 2.6 0.00 0.00 0.00 68 1014.4
20260905145642 91 227 0.9 2.6 0.00 0.00 0.00 68 1014.3
20260905145528 91 271 0.9 2.6 0.00 0.00 0.00 67 1014.3
20260905145433 91 184 0.9 2.6 0.00 0.00 0.00 67 1014.3
20260905145322 91 217 0.9 2.6 0.00 0.00 0.00 67 1014.3
20260905145229 91 218 1.7 2.6 0.00 0.00 0.00 68 1014.4
20260905145136 91 253 1.7 2.6 0.00 0.00 0.00 68 1014.3
20260905145026 90 279 0.9 2.6 0.00 0.00 0.00 69 1014.4
20260905144934 90 244 0.9 2.6 0.00 0.00 0.00 67 1014.4
20260905144900 90 244 0.9 2.6 0.00 0.00 0.00 68 1014.3
20260905144810 90 267 0.9 2.6 0.00 0.00 0.00 68 1014.3
20260905144521 90 294 0.9 2.6 0.00 0.00 0.00 68 1014.3
20260905144433 90 294 0.9 2.6 0.00 0.00 0.00 69 1014.3
20260905144319 90 271 1.7 2.6 0.00 0.00 0.00 70 1014.4
20260905144226 89 271 1.7 2.6 0.00 0.00 0.00 69 1014.5
20260905144133 89 256 1.7 2.6 0.00 0.00 0.00 69 1014.4
20260905144021 89 273 0.9 2.6 0.00 0.00 0.00 69 1014.5
20260905143930 89 290 0.9 2.6 0.00 0.00 0.00 69 1014.5
20260905143837 89 290 0.9 2.6 0.00 0.00 0.00 69 1014.5
20260905143723 89 290 1.7 2.6 0.00 0.00 0.00 71 1014.6
20260905143631 89 277 1.7 2.6 0.00 0.00 0.00 72 1014.5
20260905143519 89 229 1.7 2.6 0.00 0.00 0.00 71 1014.5
20260905143426 89 215 1.7 2.6 0.00 0.00 0.00 73 1014.5
20260905143337 89 279 1.7 2.6 0.00 0.00 0.00 73 1014.6
20260905143308 89 288 0.9 2.6 0.00 0.00 0.00 72 1014.6
20260905143021 88 199 0.0 2.6 0.00 0.00 0.00 72 1014.6
20260905142927 88 198 0.0 2.6 0.00 0.00 0.00 72 1014.6
20260905142819 88 198 0.0 2.6 0.00 0.00 0.00 71 1014.6
20260905142726 88 240 0.0 2.6 0.00 0.00 0.00 72 1014.7
20260905142632 88 229 0.0 2.6 0.00 0.00 0.00 72 1014.6
20260905142519 88 229 0.9 2.6 0.00 0.00 0.00 72 1014.7
20260905142425 88 229 0.9 2.6 0.00 0.00 0.00 71 1014.6
20260905142331 88 201 0.0 2.6 0.00 0.00 0.00 72 1014.7
20260905142222 88 238 0.0 2.6 0.00 0.00 0.00 73 1014.7
20260905142129 88 270 0.0 2.6 0.00 0.00 0.00 73 1014.6
20260905142036 88 273 0.9 2.6 0.00 0.00 0.00 74 1014.7
20260905141923 88 273 0.9 2.6 0.00 0.00 0.00 74 1014.8
20260905141851 88 273 0.9 2.6 0.00 0.00 0.00 74 1014.8
20260905141825 88 304 0.9 2.6 0.00 0.00 0.00 75 1014.8
20260905141518 87 227 0.0 2.6 0.00 0.00 0.00 74 1014.8
20260905141445 87 225 0.9 2.6 0.00 0.00 0.00 75 1014.8
20260905141329 87 258 0.9 2.6 0.00 0.00 0.00 75 1014.8
20260905141236 87 273 0.9 2.6 0.00 0.00 0.00 76 1014.9
20260905141124 87 226 0.0 1.7 0.00 0.00 0.00 76 1014.9
20260905141056 87 192 0.0 1.7 0.00 0.00 0.00 75 1014.9
20260905140922 87 192 0.0 1.7 0.00 0.00 0.00 76 1014.8
20260905140829 87 247 0.0 1.7 0.00 0.00 0.00 76 1014.8
20260905140736 87 247 0.9 1.7 0.00 0.00 0.00 75 1014.9
20260905140624 86 217 0.0 1.7 0.00 0.00 0.00 75 1014.9
20260905140531 86 355 0.0 0.9 0.00 0.00 0.00 76 1014.9
20260905140421 86 355 0.0 0.9 0.00 0.00 0.00 76 1014.9
20260905140347 86 355 0.0 2.6 0.00 0.00 0.00 76 1014.8
20260905140316 86 275 0.0 2.6 0.00 0.00 0.00 76 1014.8
20260905140029 86 275 0.0 2.6 0.00 0.00 0.00 77 1014.8
20260905135920 86 275 0.0 3.5 0.00 0.00 0.00 77 1014.8
20260905135825 86 181 0.0 3.5 0.00 0.00 0.00 77 1014.9
20260905135732 85 181 0.0 3.5 0.00 0.00 0.00 77 1014.9
20260905135620 85 181 0.0 3.5 0.00 0.00 0.00 77 1014.9
20260905135529 85 182 0.9 3.5 0.00 0.00 0.00 77 1014.9
20260905135436 85 182 1.7 3.5 0.00 0.00 0.00 77 1014.9
20260905135327 85 172 0.9 3.5 0.00 0.00 0.00 79 1014.9
20260905135235 85 134 0.9 3.5 0.00 0.00 0.00 78 1014.9
20260905135139 85 201 1.7 3.5 0.00 0.00 0.00 77 1014.9
20260905135025 85 168 1.7 3.5 0.00 0.00 0.00 77 1015.0
20260905134933 85 179 1.7 3.5 0.00 0.00 0.00 78 1014.8
20260905134820 85 215 1.7 3.5 0.00 0.00 0.00 79 1014.9
20260905134754 85 150 1.7 3.5 0.00 0.00 0.00 80 1014.9
20260905134527 85 161 1.7 3.5 0.00 0.00 0.00 80 1014.9
20260905134455 84 137 0.0 2.6 0.00 0.00 0.00 80 1014.9
20260905134321 84 121 0.0 1.7 0.00 0.00 0.00 80 1014.8
20260905134229 84 121 0.0 1.7 0.00 0.00 0.00 80 1014.9
20260905134119 84 121 0.0 1.7 0.00 0.00 0.00 80 1014.8
20260905134026 84 121 0.0 1.7 0.00 0.00 0.00 80 1014.8
20260905133933 84 121 0.0 1.7 0.00 0.00 0.00 81 1014.9
20260905133820 83 156 0.0 0.9 0.00 0.00 0.00 81 1014.9
20260905133727 83 132 0.0 0.9 0.00 0.00 0.00 81 1014.9
20260905133636 83 132 0.0 0.0 0.00 0.00 0.00 81 1015.0
20260905133544 83 113 0.0 1.7 0.00 0.00 0.00 82 1015.0
20260905133432 83 113 0.0 2.6 0.00 0.00 0.00 82 1014.9
20260905133307 83 113 0.0 2.6 0.00 0.00 0.00 82 1014.9
20260905133025 82 109 0.0 2.6 0.00 0.00 0.00 82 1015.0
20260905132953 82 109 0.0 2.6 0.00 0.00 0.00 83 1015.0
20260905132858 82 109 0.0 2.6 0.00 0.00 0.00 83 1015.0
20260905132744 82 109 0.0 2.6 0.00 0.00 0.00 83 1014.9
20260905132630 82 109 0.0 2.6 0.00 0.00 0.00 83 1014.9
20260905132537 82 119 0.0 1.7 0.00 0.00 0.00 83 1014.9
20260905132423 81 155 0.0 1.7 0.00 0.00 0.00 84 1015.0
20260905132335 81 155 0.0 0.9 0.00 0.00 0.00 84 1015.0
20260905132221 81 117 0.0 0.9 0.00 0.00 0.00 85 1014.9
20260905132127 81 86 0.0 0.9 0.00 0.00 0.00 85 1015.0
20260905132035 81 86 0.0 0.9 0.00 0.00 0.00 85 1014.9
20260905131921 81 86 0.0 0.9 0.00 0.00 0.00 85 1014.9
20260905131832 81 86 0.0 0.9 0.00 0.00 0.00 85 1015.0
20260905131803 80 86 0.0 0.9 0.00 0.00 0.00 85 1015.0
20260905131537 80 86 0.0 0.9 0.00 0.00 0.00 86 1015.0
20260905131425 80 86 0.0 0.9 0.00 0.00 0.00 86 1015.0
20260905131332 80 112 0.0 0.9 0.00 0.00 0.00 86 1015.0
20260905131225 80 76 0.0 0.0 0.00 0.00 0.00 86 1015.0
20260905131133 80 76 0.0 0.9 0.00 0.00 0.00 86 1015.1
20260905131041 80 60 0.0 0.9 0.00 0.00 0.00 86 1015.0
20260905130928 80 60 0.0 0.9 0.00 0.00 0.00 86 1015.0
20260905130855 79 60 0.0 0.9 0.00 0.00 0.00 86 1015.0
20260905130721 79 60 0.0 0.9 0.00 0.00 0.00 86 1015.0
20260905130633 79 60 0.0 0.9 0.00 0.00 0.00 86 1014.9
20260905130520 79 60 0.0 0.9 0.00 0.00 0.00 87 1015.0
20260905130427 79 60 0.0 0.9 0.00 0.00 0.00 87 1015.0
20260905130335 79 60 0.0 1.7 0.00 0.00 0.00 87 1014.9
20260905130309 79 60 0.0 2.6 0.00 0.00 0.00 87 1014.9
20260905130041 79 60 0.0 2.6 0.00 0.00 0.00 87 1015.0
20260905125927 79 68 0.0 2.6 0.00 0.00 0.00 88 1015.0
20260905125852 79 68 0.0 2.6 0.00 0.00 0.00 88 1015.0
20260905125737 79 68 0.0 2.6 0.00 0.00 0.00 88 1014.9
20260905125625 78 130 0.9 2.6 0.00 0.00 0.00 88 1015.0
20260905125551 78 130 0.9 2.6 0.00 0.00 0.00 88 1015.0
20260905125422 78 146 0.9 2.6 0.00 0.00 0.00 88 1015.0
20260905125330 78 146 0.9 2.6 0.00 0.00 0.00 88 1015.0
20260905125237 78 113 0.9 1.7 0.00 0.00 0.00 88 1014.9
20260905125124 78 55 0.0 0.9 0.00 0.00 0.00 88 1015.0
20260905125029 78 23 0.0 0.0 0.00 0.00 0.00 88 1015.0
20260905124921 78 23 0.0 0.0 0.00 0.00 0.00 88 1014.9
20260905124827 78 23 0.0 0.0 0.00 0.00 0.00 88 1015.0
20260905124757 78 23 0.0 0.0 0.00 0.00 0.00 88 1015.0
20260905124529 78 23 0.0 0.0 0.00 0.00 0.00 88 1015.0
20260905124456 77 23 0.0 0.0 0.00 0.00 0.00 89 1014.9
20260905124326 77 23 0.0 0.0 0.00 0.00 0.00 89 1014.9
20260905124233 77 23 0.0 0.0 0.00 0.00 0.00 89 1014.9
20260905124120 77 23 0.0 0.0 0.00 0.00 0.00 89 1014.9
20260905124027 77 23 0.0 0.0 0.00 0.00 0.00 89 1014.9
20260905123934 77 23 0.0 0.0 0.00 0.00 0.00 89 1014.9
20260905123820 77 23 0.0 0.0 0.00 0.00 0.00 89 1015.0
20260905123731 77 23 0.0 0.9 0.00 0.00 0.00 89 1014.9
20260905123619 77 23 0.0 0.9 0.00 0.00 0.00 89 1015.0
20260905123527 77 23 0.0 0.9 0.00 0.00 0.00 89 1014.9
20260905123433 77 23 0.0 0.9 0.00 0.00 0.00 89 1015.0
20260905123322 77 23 0.0 0.9 0.00 0.00 0.00 89 1014.9
20260905123258 77 23 0.0 0.9 0.00 0.00 0.00 89 1014.9
20260905123031 77 23 0.0 0.9 0.00 0.00 0.00 90 1015.0
20260905122919 76 23 0.0 0.9 0.00 0.00 0.00 90 1015.0
20260905122827 76 23 0.0 1.7 0.00 0.00 0.00 90 1015.0
20260905122719 76 23 0.0 1.7 0.00 0.00 0.00 90 1015.0
20260905122648 76 23 0.0 1.7 0.00 0.00 0.00 90 1015.0
20260905122554 76 23 0.0 1.7 0.00 0.00 0.00 90 1015.0
20260905122419 76 23 0.0 1.7 0.00 0.00 0.00 90 1015.0
20260905122327 76 23 0.9 1.7 0.00 0.00 0.00 90 1015.0
20260905122234 76 23 0.9 1.7 0.00 0.00 0.00 91 1015.0
20260905122140 76 23 0.9 1.7 0.00 0.00 0.00 91 1014.9
20260905122031 76 23 0.9 1.7 0.00 0.00 0.00 91 1015.0
20260905121919 76 23 0.9 1.7 0.00 0.00 0.00 91 1014.9
20260905121846 76 23 0.9 1.7 0.00 0.00 0.00 91 1014.9
20260905121755 76 23 1.7 1.7 0.00 0.00 0.00 91 1014.9
20260905121529 75 23 0.9 1.7 0.00 0.00 0.00 91 1014.9
20260905121421 75 23 0.9 2.6 0.00 0.00 0.00 91 1014.8
20260905121348 75 23 0.0 2.6 0.00 0.00 0.00 91 1014.8
20260905121233 75 23 0.0 2.6 0.00 0.00 0.00 91 1014.9
20260905121121 75 23 0.0 2.6 0.00 0.00 0.00 91 1014.8
20260905121047 75 23 0.9 2.6 0.00 0.00 0.00 91 1014.8
20260905120933 75 23 0.0 2.6 0.00 0.00 0.00 91 1014.8
20260905120825 75 23 0.9 2.6 0.00 0.00 0.00 92 1014.8
20260905120734 75 23 0.9 2.6 0.00 0.00 0.00 91 1014.8
20260905120621 75 23 0.9 2.6 0.00 0.00 0.00 92 1014.7
20260905120526 75 23 0.9 2.6 0.00 0.00 0.00 92 1014.7
20260905120434 75 23 0.9 2.6 0.00 0.00 0.00 92 1014.7
20260905120400 75 23 0.9 2.6 0.00 0.00 0.00 92 1014.7
20260905120313 75 23 0.9 1.7 0.00 0.00 0.00 92 1014.7
20260905120025 75 23 0.0 1.7 0.00 0.00 0.00 92 1014.7
20260905115931 74 23 0.0 0.9 0.00 0.00 0.00 92 1014.6
20260905115858 74 23 0.0 1.7 0.00 0.00 0.00 92 1014.6
20260905115724 74 23 0.0 1.7 0.00 0.00 0.00 92 1014.7
20260905115631 74 23 0.0 1.7 0.00 0.00 0.00 92 1014.6
20260905115522 74 23 0.0 1.7 0.00 0.00 0.00 91 1014.6
20260905115428 74 23 0.0 2.6 0.00 0.00 0.00 91 1014.6
20260905115336 74 23 0.0 2.6 0.00 0.00 0.00 91 1014.6
20260905115222 74 23 0.0 2.6 0.00 0.00 0.00 91 1014.6
20260905115129 74 23 0.9 2.6 0.00 0.00 0.00 91 1014.5
20260905115020 74 23 0.9 2.6 0.00 0.00 0.00 91 1014.5
20260905114947 74 23 0.9 2.6 0.00 0.00 0.00 91 1014.5
20260905114853 74 23 0.9 3.5 0.00 0.00 0.00 92 1014.5
20260905114801 74 23 1.7 3.5 0.00 0.00 0.00 92 1014.5
20260905114534 74 23 1.7 3.5 0.00 0.00 0.00 92 1014.4
20260905114426 74 23 1.7 3.5 0.00 0.00 0.00 92 1014.4
20260905114333 74 23 1.7 3.5 0.00 0.00 0.00 91 1014.4
20260905114220 74 23 1.7 3.5 0.00 0.00 0.00 91 1014.4
20260905114126 74 23 1.7 3.5 0.00 0.00 0.00 91 1014.4
20260905114033 74 23 1.7 3.5 0.00 0.00 0.00 92 1014.3
20260905113920 74 23 1.7 2.6 0.00 0.00 0.00 92 1014.3
20260905113832 74 23 2.6 2.6 0.00 0.00 0.00 92 1014.3
20260905113720 74 23 1.7 2.6 0.00 0.00 0.00 91 1014.3
20260905113627 74 23 0.9 2.6 0.00 0.00 0.00 91 1014.3
20260905113535 74 23 0.0 0.0 0.00 0.00 0.00 91 1014.2
20260905113424 74 23 0.0 0.0 0.00 0.00 0.00 92 1014.2
20260905113305 74 23 0.0 0.0 0.00 0.00 0.00 92 1014.3
20260905113037 74 23 0.0 0.0 0.00 0.00 0.00 91 1014.2
20260905112923 74 23 0.0 0.0 0.00 0.00 0.00 92 1014.1
20260905112830 74 23 0.0 0.0 0.00 0.00 0.00 92 1014.3
20260905112720 74 23 0.0 0.0 0.00 0.00 0.00 92 1014.2
20260905112627 74 23 0.0 0.0 0.00 0.00 0.00 92 1014.2
20260905112554 74 23 0.0 0.0 0.00 0.00 0.00 92 1014.2
20260905112419 74 23 0.0 0.0 0.00 0.00 0.00 92 1014.2
20260905112325 74 23 0.0 0.0 0.00 0.00 0.00 91 1014.1
20260905112232 74 23 0.0 0.0 0.00 0.00 0.00 91 1014.2
20260905112123 74 23 0.0 0.0 0.00 0.00 0.00 91 1014.1
20260905112030 74 23 0.0 0.0 0.00 0.00 0.00 91 1014.1
20260905111958 74 23 0.0 0.0 0.00 0.00 0.00 91 1014.0
20260905111823 74 23 0.0 0.0 0.00 0.00 0.00 91 1014.0
20260905111757 74 23 0.0 0.0 0.00 0.00 0.00 91 1014.0
20260905111529 74 23 0.0 0.0 0.00 0.00 0.00 91 1013.9
20260905111457 74 23 0.0 0.0 0.00 0.00 0.00 91 1014.0
20260905111322 75 23 0.0 0.0 0.00 0.00 0.00 91 1013.9
20260905111228 75 23 0.0 0.0 0.00 0.00 0.00 91 1014.0
20260905111135 75 23 0.0 0.0 0.00 0.00 0.00 91 1013.9
20260905111023 75 23 0.0 0.0 0.00 0.00 0.00 91 1013.9
20260905110950 75 23 0.0 0.0 0.00 0.00 0.00 91 1013.8
20260905110820 75 23 0.0 0.0 0.00 0.00 0.00 91 1013.8
20260905110728 75 23 0.0 0.0 0.00 0.00 0.00 91 1013.8
20260905110634 75 23 0.0 0.0 0.00 0.00 0.00 91 1013.8
20260905110523 75 23 0.0 0.0 0.00 0.00 0.00 91 1013.9
20260905110431 75 23 0.0 0.0 0.00 0.00 0.00 91 1013.7
20260905110322 75 23 0.0 0.0 0.00 0.00 0.00 91 1013.7
20260905110252 75 23 0.0 0.0 0.00 0.00 0.00 91 1013.7
20260905110025 75 23 0.0 0.0 0.00 0.00 0.00 91 1013.7
20260905105932 75 23 0.0 0.0 0.00 0.00 0.00 91 1013.7
20260905105822 75 23 0.0 0.0 0.00 0.00 0.00 91 1013.7
20260905105730 75 23 0.0 0.0 0.00 0.00 0.00 91 1013.7
20260905105618 75 23 0.0 0.0 0.00 0.00 0.00 91 1013.6
20260905105525 75 23 0.0 0.0 0.00 0.00 0.00 91 1013.6
20260905105430 75 23 0.0 0.0 0.00 0.00 0.00 91 1013.6
20260905105319 75 23 0.0 0.0 0.00 0.00 0.00 91 1013.7
20260905105231 75 23 0.0 0.0 0.00 0.00 0.00 91 1013.6
20260905105119 75 23 0.0 0.0 0.00 0.00 0.00 91 1013.7
20260905105045 75 23 0.0 0.0 0.00 0.00 0.00 91 1013.7
20260905104932 75 23 0.0 0.0 0.00 0.00 0.00 91 1013.7
20260905104820 75 23 0.0 0.0 0.00 0.00 0.00 91 1013.7
20260905104755 75 23 0.0 0.0 0.00 0.00 0.00 91 1013.7
20260905104529 75 23 0.0 0.0 0.00 0.00 0.00 91 1013.7
20260905104435 75 23 0.0 0.0 0.00 0.00 0.00 91 1013.7
20260905104322 75 23 0.0 0.0 0.00 0.00 0.00 91 1013.6
20260905104229 75 23 0.0 0.0 0.00 0.00 0.00 91 1013.7
20260905104121 75 23 0.0 0.0 0.00 0.00 0.00 91 1013.6
20260905104029 75 23 0.0 0.0 0.00 0.00 0.00 91 1013.6
20260905103935 75 23 0.0 0.0 0.00 0.00 0.00 91 1013.6
20260905103841 75 23 0.0 0.0 0.00 0.00 0.00 91 1013.6
20260905103728 75 23 0.0 0.0 0.00 0.00 0.00 90 1013.6
20260905103634 75 23 0.0 0.0 0.00 0.00 0.00 90 1013.6
20260905103526 75 23 0.0 0.0 0.00 0.00 0.00 90 1013.6
20260905103432 75 23 0.0 0.0 0.00 0.00 0.00 90 1013.5
20260905103401 75 23 0.0 0.0 0.00 0.00 0.00 90 1013.5
20260905103310 75 23 0.0 0.0 0.00 0.00 0.00 91 1013.5
20260905103024 75 23 0.0 0.9 0.00 0.00 0.00 91 1013.5
20260905102936 75 23 0.0 1.7 0.00 0.00 0.00 90 1013.5
20260905102821 75 23 0.0 1.7 0.00 0.00 0.00 90 1013.4
20260905102728 75 23 0.0 1.7 0.00 0.00 0.00 90 1013.4
20260905102635 75 23 0.0 1.7 0.00 0.00 0.00 90 1013.3
20260905102523 75 23 0.0 1.7 0.00 0.00 0.00 90 1013.3
20260905102451 75 23 0.0 1.7 0.00 0.00 0.00 90 1013.3
20260905102321 75 23 0.0 1.7 0.00 0.00 0.00 90 1013.4
20260905102228 75 23 0.9 1.7 0.00 0.00 0.00 90 1013.2
20260905102135 75 23 0.9 1.7 0.00 0.00 0.00 90 1013.3
20260905102021 75 23 0.9 1.7 0.00 0.00 0.00 90 1013.3
20260905101948 75 23 0.9 1.7 0.00 0.00 0.00 90 1013.3
20260905101808 75 23 0.9 1.7 0.00 0.00 0.00 90 1013.3
20260905101521 75 23 0.9 1.7 0.00 0.00 0.00 91 1013.3
20260905101429 75 23 0.9 1.7 0.00 0.00 0.00 90 1013.3
20260905101317 75 23 0.9 1.7 0.00 0.00 0.00 90 1013.3
20260905101244 75 23 0.9 1.7 0.00 0.00 0.00 90 1013.3
20260905101133 75 23 0.9 1.7 0.00 0.00 0.00 91 1013.3
20260905101021 75 23 0.9 1.7 0.00 0.00 0.00 91 1013.3
20260905100926 75 23 0.9 1.7 0.00 0.00 0.00 91 1013.3
20260905100854 75 23 0.9 1.7 0.00 0.00 0.00 91 1013.2
20260905100739 75 23 0.9 1.7 0.00 0.00 0.00 91 1013.2
20260905100623 75 23 0.9 1.7 0.00 0.00 0.00 91 1013.3
20260905100531 75 23 0.9 1.7 0.00 0.00 0.00 91 1013.2
20260905100422 75 23 0.9 1.7 0.00 0.00 0.00 91 1013.3
20260905100329 75 23 0.9 1.7 0.00 0.00 0.00 91 1013.2
20260905100259 75 23 1.7 1.7 0.00 0.00 0.00 91 1013.2
20260905100034 75 23 1.7 1.7 0.00 0.00 0.00 91 1013.3
20260905095925 75 23 1.7 1.7 0.00 0.00 0.00 91 1013.3
20260905095832 75 23 0.9 1.7 0.00 0.00 0.00 91 1013.3
20260905095720 75 23 0.0 1.7 0.00 0.00 0.00 91 1013.3
20260905095628 75 23 0.0 0.0 0.00 0.00 0.00 92 1013.3
20260905095536 75 23 0.0 0.0 0.00 0.00 0.00 92 1013.3
20260905095422 75 23 0.0 0.0 0.00 0.00 0.00 92 1013.3
20260905095355 75 23 0.0 0.0 0.00 0.00 0.00 92 1013.3
20260905095221 75 23 0.0 0.0 0.00 0.00 0.00 91 1013.3
20260905095127 75 23 0.0 0.0 0.00 0.00 0.00 91 1013.2
20260905095034 75 23 0.0 0.0 0.00 0.00 0.00 92 1013.2
20260905094921 75 23 0.0 0.0 0.00 0.00 0.00 92 1013.3
20260905094850 75 23 0.0 0.9 0.00 0.00 0.00 92 1013.3
20260905094822 75 23 0.0 0.9 0.00 0.00 0.00 92 1013.3
20260905094533 75 23 0.0 0.9 0.00 0.00 0.00 92 1013.4
20260905094421 75 23 0.0 0.9 0.00 0.00 0.00 92 1013.4
20260905094329 75 23 0.0 0.9 0.00 0.00 0.00 91 1013.4
20260905094220 75 23 0.0 0.9 0.00 0.00 0.00 91 1013.3
20260905094127 75 23 0.0 0.9 0.00 0.00 0.00 91 1013.4
20260905094033 75 23 0.9 0.9 0.00 0.00 0.00 91 1013.3
20260905093921 75 23 0.0 0.9 0.00 0.00 0.00 91 1013.3
20260905093848 75 23 0.0 0.9 0.00 0.00 0.00 91 1013.2
20260905093733 75 23 0.0 0.9 0.00 0.00 0.00 91 1013.2
20260905093619 75 23 0.0 0.9 0.00 0.00 0.00 91 1013.2
20260905093528 75 23 0.0 0.9 0.00 0.00 0.00 91 1013.2
20260905093435 75 23 0.0 0.9 0.00 0.00 0.00 91 1013.2
20260905093323 75 23 0.0 0.9 0.00 0.00 0.00 91 1013.2
20260905093251 75 23 0.0 0.9 0.00 0.00 0.00 91 1013.2
20260905093029 75 23 0.0 1.7 0.00 0.00 0.00 91 1013.2
20260905092936 75 23 0.0 2.6 0.00 0.00 0.00 91 1013.2
20260905092843 75 23 0.0 2.6 0.00 0.00 0.00 90 1013.1
20260905092728 75 23 0.0 2.6 0.00 0.00 0.00 90 1013.2
20260905092635 75 23 0.0 2.6 0.00 0.00 0.00 91 1013.2
20260905092522 75 23 0.0 2.6 0.00 0.00 0.00 91 1013.3
20260905092433 75 23 0.0 2.6 0.00 0.00 0.00 91 1013.2
20260905092320 75 23 0.9 2.6 0.00 0.00 0.00 91 1013.2
20260905092226 75 23 1.7 2.6 0.00 0.00 0.00 91 1013.2
20260905092133 75 23 1.7 2.6 0.00 0.00 0.00 91 1013.2
20260905092040 75 23 1.7 2.6 0.00 0.00 0.00 91 1013.1
20260905091925 75 23 1.7 3.5 0.00 0.00 0.00 91 1013.1
20260905091837 75 23 1.7 3.5 0.00 0.00 0.00 91 1013.1
20260905091807 75 23 1.7 3.5 0.00 0.00 0.00 90 1013.1
20260905091520 75 23 1.7 3.5 0.00 0.00 0.00 90 1013.2
20260905091447 75 23 1.7 3.5 0.00 0.00 0.00 91 1013.1
20260905091333 75 23 1.7 3.5 0.00 0.00 0.00 91 1013.2
20260905091245 75 23 1.7 3.5 0.00 0.00 0.00 91 1013.2
20260905091131 75 5 2.6 3.5 0.00 0.00 0.00 90 1013.2
20260905091019 75 5 2.6 3.5 0.00 0.00 0.00 90 1013.2
20260905090945 75 5 2.6 3.5 0.00 0.00 0.00 90 1013.2
20260905090831 75 355 2.6 3.5 0.00 0.00 0.00 90 1013.1
20260905090718 75 360 2.6 3.5 0.00 0.00 0.00 90 1013.2
20260905090645 75 360 2.6 3.5 0.00 0.00 0.00 90 1013.1
20260905090535 75 360 2.6 3.5 0.00 0.00 0.00 90 1013.1
20260905090422 76 360 1.7 2.6 0.00 0.00 0.00 89 1013.1
20260905090329 76 360 0.9 2.6 0.00 0.00 0.00 89 1013.1
20260905090259 76 360 0.9 1.7 0.00 0.00 0.00 89 1013.1
20260905090037 76 360 0.9 0.9 0.00 0.00 0.00 89 1013.0
20260905085923 76 360 0.9 0.9 0.00 0.00 0.00 90 1013.1
20260905085830 76 360 0.9 0.9 0.00 0.00 0.00 90 1013.1
20260905085718 76 360 0.9 0.9 0.00 0.00 0.00 90 1013.1
20260905085646 76 360 0.9 0.9 0.00 0.00 0.00 90 1013.1
20260905085534 76 360 0.9 0.9 0.00 0.00 0.00 90 1013.1
20260905085444 76 360 0.0 0.9 0.00 0.00 0.00 90 1013.1
20260905085332 76 360 0.0 0.9 0.00 0.00 0.00 90 1013.1
20260905085219 76 360 0.0 0.0 0.00 0.00 0.00 90 1013.1
20260905085127 76 360 0.0 0.0 0.00 0.00 0.00 90 1013.1
20260905085033 76 360 0.0 0.0 0.00 0.00 0.00 90 1013.2
20260905084920 76 360 0.0 0.0 0.00 0.00 0.00 90 1013.2
20260905084831 76 360 0.0 0.0 0.00 0.00 0.00 90 1013.2
20260905084802 76 360 0.0 0.0 0.00 0.00 0.00 91 1013.2
20260905084535 76 360 0.0 0.0 0.00 0.00 0.00 91 1013.1
20260905084423 76 360 0.0 0.0 0.00 0.00 0.00 91 1013.1
20260905084333 76 360 0.0 0.0 0.00 0.00 0.00 90 1013.1
20260905084219 76 360 0.0 0.0 0.00 0.00 0.00 90 1013.1
20260905084126 76 360 0.0 0.0 0.00 0.00 0.00 90 1013.0
20260905084053 76 360 0.0 0.0 0.00 0.00 0.00 90 1013.1
20260905083918 76 360 0.0 0.0 0.00 0.00 0.00 90 1013.0
20260905083824 76 360 0.0 0.0 0.00 0.00 0.00 90 1013.0
20260905083736 76 360 0.0 0.0 0.00 0.00 0.00 89 1013.1
20260905083622 76 360 0.0 0.0 0.00 0.00 0.00 89 1013.1
20260905083530 76 360 0.0 0.0 0.00 0.00 0.00 89 1013.0
20260905083437 76 360 0.0 0.0 0.00 0.00 0.00 89 1013.1
20260905083323 76 360 0.0 0.0 0.00 0.00 0.00 89 1013.0
20260905083259 76 360 0.0 0.0 0.00 0.00 0.00 89 1013.0
20260905083052 76 360 0.0 0.0 0.00 0.00 0.00 89 1013.2
20260905082917 76 360 0.0 0.0 0.00 0.00 0.00 89 1013.1
20260905082825 76 360 0.0 0.0 0.00 0.00 0.00 89 1013.2
20260905082734 76 360 0.0 0.0 0.00 0.00 0.00 89 1013.1
20260905082626 76 360 0.0 0.0 0.00 0.00 0.00 89 1013.2
20260905082533 76 360 0.0 0.0 0.00 0.00 0.00 90 1013.1
20260905082420 76 360 0.0 0.0 0.00 0.00 0.00 90 1013.1
20260905082347 76 360 0.0 0.0 0.00 0.00 0.00 90 1013.1
20260905082233 76 360 0.0 0.0 0.00 0.00 0.00 90 1013.1
20260905082139 76 360 0.0 0.0 0.00 0.00 0.00 90 1013.1
20260905082026 76 360 0.0 0.0 0.00 0.00 0.00 90 1013.1
20260905081958 76 360 0.0 0.0 0.00 0.00 0.00 90 1013.1
20260905081844 76 360 0.0 0.9 0.00 0.00 0.00 90 1013.0
20260905081754 76 360 0.0 1.7 0.00 0.00 0.00 90 1013.0
20260905081528 76 360 0.0 1.7 0.00 0.00 0.00 90 1013.1
20260905081434 76 360 0.0 1.7 0.00 0.00 0.00 89 1012.9
20260905081326 76 360 0.0 1.7 0.00 0.00 0.00 89 1013.0
20260905081233 76 360 0.0 2.6 0.00 0.00 0.00 89 1013.1
20260905081119 76 360 0.0 2.6 0.00 0.00 0.00 89 1013.0
20260905081027 76 360 0.9 2.6 0.00 0.00 0.00 89 1013.0
20260905080933 76 360 1.7 2.6 0.00 0.00 0.00 88 1013.0
20260905080825 76 360 0.9 2.6 0.00 0.00 0.00 88 1013.0
20260905080733 76 360 1.7 2.6 0.00 0.00 0.00 88 1013.0
20260905080620 76 360 1.7 2.6 0.00 0.00 0.00 88 1013.0
20260905080526 76 360 1.7 2.6 0.00 0.00 0.00 88 1013.0
20260905080434 76 360 1.7 2.6 0.00 0.00 0.00 88 1013.0
20260905080341 76 360 1.7 2.6 0.00 0.00 0.00 88 1013.1
20260905080254 76 360 1.7 2.6 0.00 0.00 0.00 88 1013.1
20260905080026 76 360 1.7 2.6 0.00 0.00 0.00 88 1012.9
20260905075952 76 360 1.7 2.6 0.00 0.00 0.00 88 1012.9
20260905075817 76 360 1.7 2.6 0.00 0.00 0.00 88 1012.9
20260905075725 76 360 0.9 1.7 0.00 0.00 0.00 89 1012.9
20260905075636 76 360 1.7 1.7 0.00 0.00 0.00 88 1013.0
20260905075523 76 360 1.7 1.7 0.00 0.00 0.00 88 1012.9
20260905075430 76 360 0.9 1.7 0.00 0.00 0.00 88 1012.8
20260905075357 76 360 0.9 1.7 0.00 0.00 0.00 88 1012.8
20260905075242 76 360 0.9 1.7 0.00 0.00 0.00 88 1012.8
20260905075149 76 360 0.9 1.7 0.00 0.00 0.00 88 1012.8
20260905075034 76 360 0.9 0.9 0.00 0.00 0.00 88 1012.8
20260905074924 76 360 0.0 0.9 0.00 0.00 0.00 88 1012.8
20260905074852 76 360 0.0 0.0 0.00 0.00 0.00 88 1012.8
20260905074822 76 360 0.0 0.0 0.00 0.00 0.00 89 1012.8
20260905074555 76 360 0.0 0.0 0.00 0.00 0.00 89 1012.8
20260905074420 76 360 0.0 0.0 0.00 0.00 0.00 89 1012.8
20260905074326 76 360 0.0 0.0 0.00 0.00 0.00 89 1012.8
20260905074236 76 360 0.0 0.0 0.00 0.00 0.00 89 1012.8
20260905074123 76 360 0.0 0.0 0.00 0.00 0.00 89 1012.8
20260905074031 76 360 0.0 0.0 0.00 0.00 0.00 88 1012.8
20260905073917 76 360 0.0 0.9 0.00 0.00 0.00 88 1012.8
20260905073823 76 360 0.0 0.9 0.00 0.00 0.00 88 1012.7
20260905073751 76 360 0.0 0.9 0.00 0.00 0.00 88 1012.8
20260905073622 76 360 0.0 0.9 0.00 0.00 0.00 88 1012.8
20260905073530 76 360 0.0 0.9 0.00 0.00 0.00 88 1012.9
20260905073436 76 360 0.0 0.9 0.00 0.00 0.00 88 1012.8
20260905073342 76 360 0.0 0.9 0.00 0.00 0.00 87 1012.9
20260905073318 76 360 0.0 1.7 0.00 0.00 0.00 87 1012.9
20260905073029 76 360 0.0 1.7 0.00 0.00 0.00 87 1012.8
20260905072936 77 360 0.9 1.7 0.00 0.00 0.00 88 1012.9
20260905072823 77 360 0.9 1.7 0.00 0.00 0.00 88 1012.9
20260905072750 77 360 0.9 1.7 0.00 0.00 0.00 88 1012.9
20260905072637 77 360 0.9 1.7 0.00 0.00 0.00 88 1012.9
20260905072527 77 360 0.9 1.7 0.00 0.00 0.00 88 1012.8
20260905072433 77 360 0.9 1.7 0.00 0.00 0.00 88 1012.9
20260905072320 77 360 0.9 1.7 0.00 0.00 0.00 88 1012.9
20260905072229 77 360 0.9 1.7 0.00 0.00 0.00 88 1012.8
20260905072137 77 360 0.9 1.7 0.00 0.00 0.00 88 1012.9
20260905072023 77 360 0.9 1.7 0.00 0.00 0.00 88 1012.9
20260905071933 77 360 0.9 1.7 0.00 0.00 0.00 88 1012.9
20260905071811 77 360 0.9 1.7 0.00 0.00 0.00 88 1012.9
20260905071524 77 360 0.9 1.7 0.00 0.00 0.00 88 1012.8
20260905071435 77 360 0.9 1.7 0.00 0.00 0.00 88 1012.9
20260905071343 77 360 0.9 1.7 0.00 0.00 0.00 88 1012.9
20260905071250 77 360 0.9 1.7 0.00 0.00 0.00 87 1012.9
20260905071136 77 360 0.9 1.7 0.00 0.00 0.00 87 1012.9
20260905071023 77 360 0.9 1.7 0.00 0.00 0.00 87 1012.9
20260905070949 77 360 0.9 1.7 0.00 0.00 0.00 87 1013.0
20260905070835 77 360 0.9 1.7 0.00 0.00 0.00 87 1013.1
20260905070725 77 360 0.9 2.6 0.00 0.00 0.00 87 1013.0
20260905070631 77 360 0.9 2.6 0.00 0.00 0.00 87 1013.1
20260905070536 77 360 0.9 2.6 0.00 0.00 0.00 87 1013.1
20260905070443 77 360 0.9 2.6 0.00 0.00 0.00 87 1013.2
20260905070349 77 360 0.9 2.6 0.00 0.00 0.00 87 1013.2
20260905070259 77 360 0.9 2.6 0.00 0.00 0.00 86 1013.2
20260905070036 77 360 1.7 2.6 0.00 0.00 0.00 86 1013.3
20260905065923 77 360 1.7 2.6 0.00 0.00 0.00 86 1013.3
20260905065850 77 360 1.7 2.6 0.00 0.00 0.00 86 1013.3
20260905065736 77 360 1.7 2.6 0.00 0.00 0.00 86 1013.2
20260905065622 77 360 1.7 2.6 0.00 0.00 0.00 86 1013.2
20260905065529 77 360 0.9 1.7 0.00 0.00 0.00 86 1013.2
20260905065419 77 360 0.9 1.7 0.00 0.00 0.00 86 1013.2
20260905065346 77 360 0.0 1.7 0.00 0.00 0.00 85 1013.2
20260905065231 77 360 0.0 1.7 0.00 0.00 0.00 85 1013.2
20260905065137 77 360 0.0 1.7 0.00 0.00 0.00 85 1013.3
20260905065025 77 360 0.0 1.7 0.00 0.00 0.00 85 1013.3
20260905064932 77 360 0.9 1.7 0.00 0.00 0.00 85 1013.4
20260905064823 77 360 0.9 2.6 0.00 0.00 0.00 85 1013.4
20260905064754 77 360 0.9 2.6 0.00 0.00 0.00 85 1013.4
20260905064525 77 360 0.9 2.6 0.00 0.00 0.00 85 1013.5
20260905064434 77 360 0.9 2.6 0.00 0.00 0.00 85 1013.5
20260905064325 77 360 0.9 2.6 0.00 0.00 0.00 84 1013.4
20260905064232 77 360 0.9 2.6 0.00 0.00 0.00 84 1013.5
20260905064119 77 360 1.7 2.6 0.00 0.00 0.00 84 1013.4
20260905064025 77 360 1.7 2.6 0.00 0.00 0.00 84 1013.4
20260905063932 77 360 0.9 2.6 0.00 0.00 0.00 84 1013.4
20260905063823 77 360 0.9 2.6 0.00 0.00 0.00 85 1013.5
20260905063751 77 360 0.9 2.6 0.00 0.00 0.00 85 1013.4
20260905063634 77 360 0.9 2.6 0.00 0.00 0.00 85 1013.5
20260905063523 78 355 0.9 2.6 0.00 0.00 0.00 85 1013.4
20260905063450 77 355 1.7 2.6 0.00 0.00 0.00 85 1013.5
20260905063335 77 355 1.7 2.6 0.00 0.00 0.00 85 1013.5
20260905063310 78 355 1.7 2.6 0.00 0.00 0.00 85 1013.5
20260905063043 78 42 1.7 2.6 0.00 0.00 0.00 85 1013.5
20260905062929 78 42 1.7 2.6 0.00 0.00 0.00 86 1013.5
20260905062837 78 42 1.7 1.7 0.00 0.00 0.00 86 1013.5
20260905062723 78 42 0.9 1.7 0.00 0.00 0.00 86 1013.6
20260905062630 78 42 0.9 1.7 0.00 0.00 0.00 86 1013.5
20260905062521 78 42 0.9 2.6 0.00 0.00 0.00 86 1013.5
20260905062428 78 42 0.9 2.6 0.00 0.00 0.00 86 1013.6
20260905062335 78 42 0.9 2.6 0.00 0.00 0.00 86 1013.5
20260905062222 78 42 0.9 2.6 0.00 0.00 0.00 86 1013.5
20260905062130 78 42 0.9 2.6 0.00 0.00 0.00 86 1013.5
20260905062021 78 42 0.9 2.6 0.00 0.00 0.00 86 1013.5
20260905061929 78 42 0.9 2.6 0.00 0.00 0.00 86 1013.6
20260905061857 78 42 1.7 2.6 0.00 0.00 0.00 86 1013.5
20260905061807 78 42 1.7 2.6 0.00 0.00 0.00 85 1013.5
20260905061519 78 48 0.9 2.6 0.00 0.00 0.00 85 1013.6
20260905061431 78 360 0.9 2.6 0.00 0.00 0.00 85 1013.6
20260905061320 78 360 1.7 2.6 0.00 0.00 0.00 85 1013.6
20260905061226 78 5 1.7 2.6 0.00 0.00 0.00 85 1013.6
20260905061134 78 9 1.7 2.6 0.00 0.00 0.00 85 1013.6
20260905061020 78 9 1.7 2.6 0.00 0.00 0.00 86 1013.7
20260905060927 78 9 1.7 2.6 0.00 0.00 0.00 86 1013.6
20260905060819 78 9 1.7 2.6 0.00 0.00 0.00 86 1013.7
20260905060726 78 9 1.7 2.6 0.00 0.00 0.00 86 1013.6
20260905060633 78 13 1.7 2.6 0.00 0.00 0.00 85 1013.7
20260905060520 78 24 1.7 2.6 0.00 0.00 0.00 86 1013.7
20260905060427 78 17 1.7 2.6 0.00 0.00 0.00 86 1013.7
20260905060339 78 17 1.7 2.6 0.00 0.00 0.00 86 1013.6
20260905060309 78 17 1.7 2.6 0.00 0.00 0.00 85 1013.6
20260905060024 78 17 1.7 2.6 0.00 0.00 0.00 85 1013.7
20260905055932 78 17 1.7 2.6 0.00 0.00 0.00 85 1013.7
20260905055821 78 17 1.7 2.6 0.00 0.00 0.00 85 1013.7
20260905055730 78 17 1.7 2.6 0.00 0.00 0.00 85 1013.7
20260905055636 78 17 0.9 2.6 0.00 0.00 0.00 84 1013.7
20260905055544 78 17 0.9 2.6 0.00 0.00 0.00 84 1013.7
20260905055429 78 17 0.9 2.6 0.00 0.00 0.00 84 1013.7
20260905055357 78 17 0.9 2.6 0.00 0.00 0.00 85 1013.7
20260905055243 78 17 0.9 2.6 0.00 0.00 0.00 85 1013.6
20260905055128 78 17 1.7 2.6 0.00 0.00 0.00 85 1013.6
20260905055019 78 17 1.7 2.6 0.00 0.00 0.00 85 1013.7
20260905054925 78 17 1.7 2.6 0.00 0.00 0.00 85 1013.6
20260905054852 78 17 1.7 2.6 0.00 0.00 0.00 85 1013.6
20260905054821 78 17 1.7 2.6 0.00 0.00 0.00 85 1013.6
20260905054533 78 17 1.7 2.6 0.00 0.00 0.00 85 1013.8
20260905054424 78 17 1.7 2.6 0.00 0.00 0.00 85 1013.8
20260905054332 78 17 0.9 2.6 0.00 0.00 0.00 85 1013.7
20260905054239 78 17 0.9 3.5 0.00 0.00 0.00 85 1013.7
20260905054125 78 17 0.9 3.5 0.00 0.00 0.00 85 1013.7
20260905054053 78 17 0.9 3.5 0.00 0.00 0.00 85 1013.7
20260905053939 78 17 0.9 3.5 0.00 0.00 0.00 85 1013.8
20260905053825 78 17 1.7 3.5 0.00 0.00 0.00 85 1013.7
20260905053735 78 17 1.7 3.5 0.00 0.00 0.00 85 1013.7
20260905053622 78 17 1.7 3.5 0.00 0.00 0.00 85 1013.6
20260905053529 78 17 2.6 3.5 0.00 0.00 0.00 85 1013.5
20260905053436 78 17 2.6 3.5 0.00 0.00 0.00 84 1013.7
20260905053344 78 17 1.7 2.6 0.00 0.00 0.00 83 1013.6
20260905053257 78 17 1.7 2.6 0.00 0.00 0.00 83 1013.6
20260905053031 78 17 1.7 2.6 0.00 0.00 0.00 83 1013.5
20260905052937 78 17 1.7 2.6 0.00 0.00 0.00 84 1013.5
20260905052824 78 17 1.7 1.7 0.00 0.00 0.00 84 1013.7
20260905052752 78 17 0.9 1.7 0.00 0.00 0.00 84 1013.6
20260905052620 78 17 0.0 1.7 0.00 0.00 0.00 84 1013.6
20260905052527 78 17 0.0 1.7 0.00 0.00 0.00 84 1013.6
20260905052433 78 17 0.0 1.7 0.00 0.00 0.00 84 1013.5
20260905052319 78 17 0.0 1.7 0.00 0.00 0.00 84 1013.7
20260905052226 78 17 0.9 1.7 0.00 0.00 0.00 84 1013.5
20260905052133 78 17 0.9 1.7 0.00 0.00 0.00 84 1013.5
20260905052022 78 17 0.0 1.7 0.00 0.00 0.00 84 1013.5
20260905051930 78 17 0.0 0.9 0.00 0.00 0.00 84 1013.5
20260905051828 78 17 0.0 0.9 0.00 0.00 0.00 84 1013.5
20260905051540 78 17 0.0 0.9 0.00 0.00 0.00 84 1013.5
20260905051446 78 17 0.0 0.9 0.00 0.00 0.00 84 1013.6
20260905051336 78 17 0.0 0.9 0.00 0.00 0.00 84 1013.5
20260905051243 78 17 0.0 0.9 0.00 0.00 0.00 84 1013.7
20260905051130 78 17 0.0 0.0 0.00 0.00 0.00 84 1013.7
20260905051019 78 17 0.0 0.0 0.00 0.00 0.00 85 1013.7
20260905050925 78 17 0.0 0.9 0.00 0.00 0.00 84 1013.7
20260905050853 78 17 0.0 0.9 0.00 0.00 0.00 85 1013.7
20260905050721 78 17 0.0 0.9 0.00 0.00 0.00 85 1013.7
20260905050628 78 17 0.0 0.9 0.00 0.00 0.00 85 1013.6
20260905050535 78 17 0.0 0.9 0.00 0.00 0.00 85 1013.7
20260905050421 78 17 0.0 1.7 0.00 0.00 0.00 84 1013.6
20260905050323 78 17 0.0 1.7 0.00 0.00 0.00 84 1013.7
20260905050036 78 17 0.0 1.7 0.00 0.00 0.00 85 1013.7
20260905045923 78 17 0.0 2.6 0.00 0.00 0.00 85 1013.7
20260905045831 78 17 0.0 2.6 0.00 0.00 0.00 85 1013.8
20260905045718 78 17 0.9 2.6 0.00 0.00 0.00 85 1013.8
20260905045630 78 17 0.9 2.6 0.00 0.00 0.00 85 1013.8
20260905045537 78 17 0.9 2.6 0.00 0.00 0.00 85 1013.8
20260905045424 78 17 0.9 2.6 0.00 0.00 0.00 84 1013.7
20260905045332 78 17 0.9 2.6 0.00 0.00 0.00 84 1013.7
20260905045219 78 17 0.9 2.6 0.00 0.00 0.00 84 1013.7